GFSSGP_sfc_wetblb_000.txt.gz
Wetbulb
54.39 52.71 49.06 46.68 39.81 39.94 37.38 39.81 46.15 48.19 52.64 57.20 59.18 58.15 57.32 59.29 56.03 51.84 66.41 68.46 69.77 69.75 70.88 70.87 71.18 71.94 72.00 71.78 71.51 71.71 71.52 70.46 70.22 70.16 69.74 69.17 68.73 68.53 68.31 67.85 68.22 67.38 66.86 66.82 66.49 66.47 66.50 66.45 66.63
48.99 50.42 47.46 42.69 36.65 32.84 35.73 43.30 50.05 53.81 56.05 57.43 57.42 57.21 57.66 56.72 63.49 63.93 65.52 69.66 69.49 70.27 70.60 70.82 70.90 71.51 71.73 71.65 71.68 71.52 71.04 70.61 70.33 70.18 69.37 68.63 68.26 67.64 67.22 67.07 67.24 66.52 66.15 65.91 65.48 65.10 64.65 64.55 64.66
50.00 50.48 42.56 38.94 33.87 34.42 35.32 48.28 53.42 54.92 56.87 55.88 54.15 56.54 56.47 58.45 64.08 64.30 68.10 69.85 69.99 69.49 69.53 70.61 70.91 71.24 71.69 71.69 71.36 71.16 71.18 70.90 70.64 69.88 68.91 68.21 67.61 66.89 66.07 66.02 65.69 65.38 65.15 64.83 64.53 63.96 63.37 63.24 63.62
48.10 45.52 41.65 36.81 34.37 39.19 41.49 49.85 54.85 54.54 56.10 57.11 56.41 54.05 57.86 62.30 63.95 66.64 69.61 69.74 68.95 68.38 68.68 68.70 69.83 70.89 71.30 71.31 71.30 71.28 70.86 70.18 70.07 69.54 68.47 67.83 67.01 66.19 65.20 65.01 64.25 63.99 63.84 63.22 63.21 63.01 62.73 62.75 62.95
45.18 40.71 35.70 33.30 35.47 39.39 43.67 51.36 53.05 53.33 53.61 54.68 55.47 53.23 55.39 64.98 67.30 68.50 68.78 69.09 68.29 68.66 69.18 69.56 69.76 70.79 71.22 71.41 71.26 70.76 69.99 69.28 69.39 69.13 68.21 67.25 66.44 65.57 64.74 63.89 63.42 63.18 62.94 63.23 63.09 62.97 62.97 62.84 62.94
41.53 39.58 34.38 33.02 36.84 43.40 46.78 52.84 55.24 54.31 54.23 54.78 55.15 54.07 55.50 66.30 66.23 67.73 68.66 67.93 68.62 68.71 70.18 69.99 70.61 70.52 70.18 70.30 70.11 69.66 69.13 68.99 68.84 68.51 67.64 66.72 66.18 65.35 64.28 63.42 63.34 63.06 62.71 62.90 63.31 63.24 63.34 63.49 63.39
39.12 36.53 33.42 35.37 41.62 42.57 45.18 53.94 53.80 53.41 53.69 53.43 55.20 50.63 58.48 63.50 66.74 68.30 68.12 67.93 68.78 69.85 69.60 69.59 69.38 69.80 69.10 68.32 68.34 68.25 68.49 68.51 68.38 67.99 67.44 67.00 66.28 65.82 64.36 64.02 64.06 63.89 63.32 63.70 64.05 64.33 64.22 64.04 63.98
41.25 38.64 36.88 40.63 41.36 42.74 44.25 49.99 52.85 53.47 52.32 56.18 55.88 53.73 57.04 61.87 67.01 67.71 67.23 66.74 67.00 67.58 68.19 68.19 69.06 69.68 67.28 66.53 67.33 67.35 67.24 67.37 67.46 67.39 66.68 65.96 65.80 65.65 65.26 64.91 63.85 64.59 64.58 64.56 64.72 64.53 64.48 64.23 64.16
41.16 36.78 35.99 40.35 42.78 45.11 48.16 46.93 46.95 53.37 53.87 53.58 53.77 55.61 60.33 65.02 66.09 65.23 65.19 65.56 65.63 66.59 67.08 67.56 67.41 67.14 65.40 64.82 66.16 67.04 67.51 66.90 66.61 66.39 65.94 64.23 61.93 61.27 61.53 64.02 65.12 64.99 64.65 64.64 64.97 64.97 64.58 64.04 63.40
40.39 36.42 38.28 41.90 42.57 48.26 51.04 48.90 50.51 51.88 51.22 50.80 50.69 58.03 62.95 64.53 63.68 62.30 61.93 62.28 62.96 64.24 65.05 65.49 63.93 63.55 63.49 66.01 64.12 63.16 63.68 63.42 63.17 63.58 63.01 62.30 61.56 61.20 62.90 63.19 64.35 65.06 64.99 65.34 65.21 65.08 64.86 63.68 59.69
38.55 38.14 40.27 42.02 43.40 44.23 45.94 44.96 48.89 50.55 47.09 50.67 51.86 56.77 59.87 61.90 61.75 61.49 61.57 61.85 62.43 63.58 62.95 62.28 62.01 62.17 62.10 62.73 61.77 61.45 61.77 61.44 61.83 61.91 61.25 61.09 61.78 60.92 60.69 60.56 59.63 59.10 62.08 59.95 59.80 59.51 59.16 58.57 58.08
38.85 41.75 41.73 41.44 43.56 42.93 45.79 43.21 49.62 45.24 49.44 54.60 56.33 58.80 58.19 59.10 58.75 59.45 58.89 59.33 58.60 60.11 61.34 61.45 60.99 60.74 60.44 60.38 60.69 60.10 60.51 60.77 61.03 61.54 61.45 60.18 59.53 58.32 57.26 57.22 55.68 54.67 54.64 54.02 54.62 55.31 55.92 56.16 55.08
39.88 40.82 42.60 41.82 41.91 40.92 42.52 43.43 47.05 41.44 49.94 53.43 55.20 57.49 56.92 57.71 57.03 56.58 57.49 58.00 57.22 58.88 59.28 59.62 60.00 59.67 59.78 59.47 59.88 59.52 60.22 61.18 61.20 61.20 61.22 59.26 57.73 54.83 54.56 53.56 53.71 53.54 53.66 53.31 52.67 52.69 52.63 52.32 52.28
43.41 40.02 39.44 42.10 40.12 40.00 41.34 40.08 40.56 41.53 51.21 51.42 53.40 54.77 54.79 56.64 55.32 53.50 53.72 54.19 56.10 58.73 58.90 59.65 60.02 58.61 57.89 58.03 58.96 59.10 59.50 60.45 61.36 60.62 58.83 57.52 55.76 54.58 53.76 52.08 51.41 51.02 51.59 51.06 51.03 51.36 50.82 49.95 49.72
41.91 39.19 40.33 40.98 40.44 40.04 43.10 38.71 37.30 43.44 51.37 50.71 51.12 51.22 50.89 52.43 51.64 51.13 51.85 52.77 55.28 57.71 58.32 58.93 59.02 59.25 59.11 58.73 58.81 58.99 58.97 59.59 59.27 57.27 56.00 55.83 54.26 51.86 50.27 48.95 48.64 48.78 49.53 48.96 48.46 48.34 46.78 46.30 46.75
39.29 38.03 34.75 38.97 40.91 40.65 39.55 33.80 39.81 46.54 50.45 48.85 49.85 50.97 50.39 50.21 50.78 51.04 51.92 51.23 54.36 57.42 59.77 60.51 61.81 61.44 60.36 58.51 58.44 57.02 55.61 56.12 55.69 55.01 53.76 52.35 50.61 49.72 48.19 48.72 47.78 47.88 47.37 45.96 46.18 46.17 44.26 44.62 44.11
36.39 32.23 34.33 37.00 40.87 40.58 39.33 35.01 40.99 43.02 48.55 45.94 46.40 47.22 48.83 49.05 50.12 51.21 54.62 54.53 56.85 59.79 60.17 59.85 61.00 60.03 58.65 57.04 55.29 54.46 52.67 51.73 51.68 51.28 49.24 48.92 48.72 48.53 47.38 47.38 46.92 45.96 44.50 44.13 44.30 43.97 43.79 43.21 43.03
32.73 33.20 32.32 35.09 38.12 40.21 38.03 38.25 42.14 44.10 45.20 44.52 44.28 45.87 46.52 46.40 47.18 51.04 52.67 53.31 55.49 57.48 58.11 57.41 56.96 55.52 54.46 53.76 54.36 54.11 51.95 50.85 51.24 49.38 47.79 48.94 48.72 49.15 48.46 45.94 45.08 44.38 43.28 42.73 42.73 42.37 42.51 42.55 42.58
37.84 36.05 34.19 34.53 39.57 39.92 38.10 38.40 40.27 43.82 44.23 43.46 43.90 44.69 45.10 45.82 48.12 49.61 51.44 51.81 52.57 53.86 54.15 54.27 54.49 54.59 52.86 50.32 50.63 51.17 49.98 51.54 48.50 47.00 46.71 46.19 45.98 45.22 44.60 44.36 44.04 43.72 42.59 41.66 42.59 41.78 41.25 41.48 42.65
39.31 36.49 34.97 37.82 41.34 40.51 39.44 37.09 39.49 41.92 42.27 43.56 44.04 44.08 45.08 45.65 46.69 47.87 48.09 48.84 49.98 50.96 51.96 50.97 50.57 50.13 50.37 50.27 49.55 51.37 50.96 48.16 46.57 45.56 43.65 44.08 44.02 43.95 45.01 43.92 43.34 42.73 42.02 41.65 41.39 41.06 40.73 40.83 41.85
38.75 36.61 35.80 36.65 40.90 40.42 38.99 37.00 38.16 42.54 44.61 45.58 45.30 44.73 45.57 45.67 46.05 46.58 46.00 45.16 46.39 46.66 46.42 47.08 47.11 47.45 48.15 49.85 48.74 45.97 45.61 45.52 43.44 43.00 41.10 42.17 43.08 43.23 43.10 43.60 42.93 41.80 41.60 41.21 40.57 40.41 39.79 39.01 39.67
36.38 40.48 39.55 38.51 36.56 32.97 36.77 29.64 35.26 38.80 41.26 43.18 43.64 43.64 44.62 45.51 45.49 45.01 44.31 44.05 43.78 43.17 44.14 45.35 46.27 46.07 46.32 45.82 45.54 44.62 43.16 41.94 41.86 40.52 39.62 40.65 42.27 42.50 42.93 42.73 41.82 41.02 40.95 41.41 40.93 40.09 38.66 38.67 34.97
39.26 42.01 39.50 37.46 34.74 33.46 34.14 31.69 32.50 39.33 39.23 41.40 42.61 44.14 44.09 43.67 44.67 45.95 45.19 45.36 44.58 45.12 44.44 43.82 45.27 45.37 44.79 44.36 44.36 43.01 40.32 40.72 40.60 39.38 39.97 40.07 41.45 41.84 41.66 41.81 41.31 41.25 40.00 39.27 38.59 36.96 35.91 36.36 34.86
43.13 41.21 39.55 37.28 35.00 28.01 33.25 31.89 30.91 35.45 38.98 40.97 42.52 44.45 44.58 44.60 43.85 45.18 46.32 46.77 45.63 44.03 43.14 43.36 43.95 42.78 43.03 42.17 41.96 40.95 40.38 39.50 39.36 40.07 40.00 40.43 40.16 40.58 41.00 41.11 39.51 39.21 38.37 37.60 36.59 35.65 35.31 34.57 34.31
40.53 36.67 29.38 28.56 25.40 26.24 35.15 32.51 33.94 39.72 41.10 43.46 43.26 43.63 43.91 43.33 43.38 44.43 45.31 44.83 42.50 41.68 41.83 42.81 41.31 40.41 41.17 41.16 40.95 40.52 40.14 39.42 40.07 39.86 39.16 39.55 40.75 40.05 39.60 39.00 38.40 37.80 37.58 37.20 36.11 34.49 33.94 32.75 31.48
36.01 36.29 29.43 24.97 22.35 27.91 34.54 29.81 34.57 40.66 42.81 44.48 44.39 43.84 43.46 43.55 43.74 43.71 42.05 41.92 41.64 41.67 40.05 39.97 39.94 39.54 40.28 40.41 40.18 40.30 40.17 39.92 40.51 40.39 39.96 40.28 38.80 38.09 38.65 38.31 37.20 36.71 38.90 37.14 38.18 36.15 33.18 32.62 31.50
36.57 32.15 36.38 30.23 28.40 26.67 29.17 33.68 38.02 40.07 40.77 42.43 42.85 42.67 41.85 40.87 41.05 41.40 41.73 41.32 41.22 41.40 40.50 39.12 39.27 38.95 38.92 38.78 38.96 38.48 38.58 38.01 37.94 38.28 38.30 38.11 38.15 39.48 38.13 36.63 38.33 38.44 37.55 36.53 35.81 33.58 34.18 32.98 31.98
38.18 39.71 31.03 28.65 22.94 21.45 26.62 29.15 30.97 36.26 39.04 40.99 40.00 39.93 39.84 40.26 40.82 40.76 40.30 40.24 40.16 40.01 40.64 40.21 37.98 35.73 35.52 35.46 36.16 36.09 35.57 35.93 36.04 35.97 35.88 36.73 37.21 38.16 38.65 39.47 37.56 37.67 36.16 36.57 35.46 32.78 32.37 32.34 31.44
37.02 34.50 33.20 32.40 27.37 21.72 19.12 26.99 35.51 38.11 40.62 38.89 38.62 39.42 39.47 39.43 39.25 39.24 38.77 38.58 37.83 39.10 38.69 37.41 35.10 34.82 34.47 34.26 34.86 34.56 34.79 35.00 35.07 34.96 35.41 35.47 36.27 37.31 36.97 37.22 37.06 34.85 34.76 34.41 31.39 30.55 30.47 31.15 29.97
37.26 34.79 32.97 24.60 26.22 24.57 21.64 25.74 36.31 36.78 39.21 39.12 38.73 39.04 38.72 39.07 38.67 38.43 38.06 37.94 36.75 35.75 35.78 34.29 33.87 34.18 33.76 33.58 33.98 33.83 34.28 34.39 33.95 33.72 33.99 34.62 34.49 34.87 35.59 35.65 35.33 35.06 33.14 31.40 29.90 29.70 29.76 28.27 27.49

GFSSGP_sfc_wetblb_003.txt.gz
Wetbulb
59.94 56.85 54.41 53.42 45.98 46.00 42.75 44.35 50.21 53.46 55.35 59.56 61.22 59.67 58.01 58.53 56.57 53.85 67.46 69.40 70.11 70.91 71.72 71.31 70.49 71.21 71.72 71.59 71.58 71.68 71.58 71.04 70.77 70.44 70.03 69.45 69.20 68.81 68.44 67.99 68.81 68.00 66.99 66.78 66.11 65.75 65.08 65.06 65.24
52.52 52.65 52.86 49.43 43.33 40.39 43.02 46.88 52.67 55.73 58.08 58.46 57.89 57.85 56.42 53.71 60.21 64.33 66.09 70.05 70.77 71.20 71.56 70.77 70.20 70.85 71.51 71.26 71.61 71.48 71.37 70.87 70.74 70.36 69.69 69.03 68.59 68.11 67.79 67.45 67.93 66.83 66.15 65.58 64.87 64.20 63.92 64.02 64.21
53.38 52.45 49.98 46.86 43.10 41.06 43.41 52.18 55.00 56.93 58.38 57.11 54.85 57.78 57.87 55.69 60.32 65.11 68.84 70.65 71.28 71.03 71.36 70.74 70.03 70.41 70.97 71.14 70.76 71.31 71.20 71.12 71.09 70.24 69.12 68.64 67.94 67.02 66.83 66.39 66.49 65.33 64.71 64.14 64.03 63.65 63.42 63.61 63.89
52.45 52.11 47.91 44.24 41.92 44.00 45.68 54.92 56.84 55.69 57.29 57.87 56.58 53.65 60.34 64.77 64.81 66.97 70.47 71.04 70.48 70.35 70.89 70.04 69.35 69.99 70.64 71.05 71.44 71.41 71.07 70.70 70.60 69.90 68.82 68.11 67.09 66.44 65.70 65.03 64.50 63.88 63.73 64.25 64.13 64.09 63.71 63.78 64.25
50.74 47.99 44.36 41.80 41.66 45.12 48.07 56.38 57.26 54.78 55.31 56.33 56.61 53.88 57.49 65.52 68.14 69.49 69.76 70.18 69.40 70.01 70.87 70.80 68.43 69.31 70.25 71.04 71.26 70.89 70.28 69.94 69.96 69.61 68.66 67.50 66.74 65.80 64.76 64.14 63.71 63.58 63.84 64.40 64.29 63.90 63.97 64.14 64.59
48.88 46.85 42.46 40.78 43.02 47.58 50.43 56.63 56.78 55.67 56.21 55.97 55.97 56.41 58.75 67.27 67.71 68.55 69.62 69.30 69.84 69.40 70.31 70.56 70.01 69.87 70.33 70.60 70.36 69.68 69.20 69.34 69.24 68.82 67.88 67.09 66.56 65.50 64.45 64.37 64.02 63.76 63.64 63.99 64.44 64.11 64.31 64.62 64.82
46.71 44.66 42.04 41.78 46.04 47.09 51.58 57.63 55.15 55.64 55.71 55.00 57.58 55.07 61.38 65.00 67.69 68.83 68.85 69.17 69.61 70.13 70.28 70.74 70.99 70.89 69.08 68.37 68.43 68.27 68.40 68.63 68.47 68.15 67.60 66.77 65.95 65.50 64.79 64.77 65.12 65.09 64.70 64.91 65.24 65.19 65.32 65.17 65.30
47.21 45.52 42.13 45.69 46.19 45.34 50.01 55.59 56.61 54.23 54.37 57.97 60.67 56.37 58.26 63.64 67.59 68.09 68.45 68.62 68.77 70.08 70.02 70.01 70.73 70.59 70.77 70.75 67.58 67.96 67.98 67.78 67.73 67.44 66.79 65.79 65.85 65.29 65.19 64.91 64.22 65.47 65.68 65.61 65.93 65.79 65.56 65.48 65.35
46.57 43.82 44.40 45.16 46.90 48.01 52.72 51.08 51.48 56.58 56.53 56.06 56.13 60.74 63.25 66.44 67.56 66.68 65.92 66.03 66.98 67.70 68.48 69.11 68.88 69.69 70.31 70.23 69.38 68.13 67.62 67.29 66.91 66.85 66.14 65.74 66.70 65.98 65.63 64.84 65.34 65.75 65.25 65.67 65.98 65.76 65.48 65.22 64.66
46.27 43.59 44.00 47.35 50.50 50.98 52.41 51.80 52.85 54.82 54.52 53.12 56.47 62.93 65.63 65.42 65.15 63.88 63.56 63.60 64.93 65.52 66.54 67.76 68.00 68.53 68.57 68.74 68.75 68.38 67.60 67.24 66.92 66.68 66.61 67.02 66.70 66.85 65.86 65.57 64.84 65.48 65.02 65.72 65.19 64.82 64.62 64.88 64.91
45.06 44.46 44.24 45.24 44.25 48.63 50.70 47.96 53.12 54.56 52.60 54.35 56.34 60.11 62.64 63.19 62.99 62.31 62.66 63.67 64.74 65.01 65.41 66.23 67.08 68.00 67.65 67.41 67.35 66.71 66.15 65.86 66.08 66.02 65.98 66.47 66.27 67.04 67.46 67.13 66.76 66.47 63.89 63.67 61.93 62.27 63.04 63.31 63.02
43.83 44.83 43.50 44.26 43.81 49.26 49.38 51.47 52.62 53.16 52.08 56.54 60.49 63.35 62.53 61.94 61.64 62.50 63.09 63.50 64.27 65.06 65.58 66.83 66.01 66.08 65.65 65.65 65.34 64.67 64.44 64.72 64.86 65.62 66.12 66.15 65.74 65.55 64.16 63.43 62.42 61.84 61.75 61.06 60.47 60.56 60.70 60.38 58.96
43.65 43.71 44.18 43.02 45.04 47.77 46.44 50.88 52.46 46.81 54.02 58.25 61.63 62.92 63.12 63.25 63.26 63.38 63.00 63.03 63.38 63.37 64.07 63.71 63.56 63.48 63.48 63.33 63.75 63.80 63.90 64.52 65.17 65.65 66.03 65.86 64.83 63.77 62.72 60.92 59.87 59.38 59.37 58.59 58.64 58.69 57.64 56.70 55.87
45.49 44.13 44.15 43.78 43.19 44.17 45.51 44.71 47.45 47.52 53.79 57.33 60.27 61.40 62.41 62.26 61.20 60.13 59.67 59.76 61.49 62.51 62.73 62.47 61.73 62.58 62.88 62.50 63.19 63.05 61.33 62.17 63.91 63.93 60.94 60.83 62.06 61.50 58.22 57.01 56.71 56.75 56.88 56.78 56.70 55.65 54.34 53.47 53.09
44.63 43.32 44.01 44.45 45.32 44.92 46.36 44.18 42.63 47.05 52.94 54.31 58.01 57.67 58.15 58.57 58.89 59.30 58.70 58.76 60.68 61.62 61.93 61.76 62.11 63.12 62.80 62.64 63.18 61.99 59.42 59.44 58.86 59.29 59.17 57.36 56.64 57.00 56.12 56.53 55.46 55.30 55.35 55.05 54.50 53.10 53.65 52.39 51.41
43.27 43.05 40.69 43.93 45.80 44.90 44.76 40.23 46.30 48.22 52.77 51.18 52.58 53.73 54.30 53.61 54.66 56.13 56.96 57.65 60.74 61.45 61.80 61.89 62.75 62.18 60.75 60.24 57.61 56.15 55.68 56.71 56.69 57.06 56.81 55.80 55.15 55.97 55.70 54.81 54.05 53.34 53.11 53.21 52.84 52.05 51.44 50.83 50.10
41.80 38.62 39.60 42.02 45.49 45.32 45.50 41.93 47.03 48.61 51.36 49.71 50.84 51.93 52.60 52.89 53.99 56.74 58.12 58.90 61.57 62.48 62.06 62.01 61.43 60.35 56.94 56.30 54.11 53.87 54.63 53.52 53.47 54.02 52.82 52.86 52.55 53.30 54.22 53.53 52.50 52.64 52.15 51.65 50.92 50.16 49.59 48.94 48.38
39.10 39.19 40.07 41.08 43.35 45.46 44.71 43.19 46.51 48.36 50.58 49.30 50.13 50.95 51.10 51.34 52.03 55.67 58.25 61.20 62.33 62.32 61.49 59.86 59.41 56.21 55.24 57.49 55.97 56.17 55.02 53.82 53.30 51.44 50.95 51.68 51.93 52.66 53.10 52.42 52.25 52.15 51.32 50.48 50.07 48.88 48.76 48.83 48.05
41.10 40.31 40.05 40.93 44.46 44.48 42.13 43.41 44.96 47.62 48.39 48.77 49.70 50.33 50.60 50.98 52.78 55.59 57.66 60.29 60.69 60.87 59.54 58.83 57.57 56.78 56.81 55.46 55.88 56.27 55.78 54.35 51.15 51.04 51.12 51.16 51.50 51.98 52.49 51.64 51.53 51.49 50.44 50.23 49.66 49.06 46.82 46.92 48.00
42.31 40.75 40.24 42.55 44.37 45.01 44.34 43.43 46.05 46.98 46.69 48.02 49.32 49.80 50.40 50.62 52.49 53.79 56.92 59.87 61.22 60.75 60.83 59.08 57.85 55.84 56.05 56.48 56.96 56.68 55.51 52.87 50.58 49.95 50.15 50.17 50.62 50.82 50.62 51.26 51.20 51.30 50.64 50.09 49.30 47.50 45.94 46.64 47.08
42.13 41.18 39.68 41.19 43.83 45.00 44.60 42.29 44.27 47.07 48.16 48.74 49.06 49.62 50.49 51.42 51.53 53.02 55.49 57.90 57.71 56.91 56.44 56.93 55.94 55.39 54.79 54.45 53.99 52.59 52.33 52.29 50.93 49.69 49.45 49.70 50.37 50.68 51.13 51.48 51.39 51.00 50.49 49.58 48.68 47.31 45.43 43.54 45.44
41.09 42.90 43.37 41.72 41.39 38.40 41.63 36.69 42.22 44.95 46.15 47.34 47.86 48.98 49.86 49.55 50.80 50.97 51.16 51.94 53.07 51.67 52.53 53.21 52.41 52.06 51.06 51.48 51.69 51.08 49.90 49.19 48.98 48.68 49.47 50.16 50.47 50.65 50.32 50.41 50.26 50.24 50.16 48.27 47.21 46.39 45.15 43.91 40.61
42.49 44.31 43.41 41.22 39.93 39.81 39.49 39.45 39.65 44.51 44.24 46.42 47.67 48.29 48.66 49.17 49.53 48.45 48.97 49.77 50.24 50.84 51.00 50.71 50.34 49.30 49.38 50.05 49.89 49.22 48.55 48.77 49.24 49.26 48.92 49.12 49.52 49.37 48.85 48.98 48.71 48.97 47.94 47.25 46.24 44.97 43.24 42.08 39.92
45.22 44.09 43.06 41.64 40.47 35.98 37.78 38.25 38.24 41.45 45.15 46.64 47.69 48.12 48.38 48.96 49.45 50.10 50.80 50.73 49.56 49.56 49.87 49.36 48.28 47.35 48.00 48.13 47.93 48.12 47.36 46.92 47.07 47.32 47.26 47.94 48.34 48.83 49.00 48.18 47.66 47.69 46.89 45.95 44.58 43.18 41.52 40.56 39.93
44.35 42.16 36.59 35.26 35.15 33.40 38.01 36.92 40.86 43.86 45.96 48.37 47.65 48.46 48.95 49.64 49.22 49.39 50.18 50.13 48.89 48.65 47.79 47.04 46.88 45.85 46.94 46.95 46.68 46.51 46.24 46.27 45.55 45.26 45.21 45.14 45.32 45.79 47.36 47.36 46.84 46.40 44.83 43.53 44.04 42.58 41.26 40.35 39.01
41.31 41.92 36.92 29.12 30.44 34.48 37.68 35.44 40.96 43.73 46.82 49.44 49.85 49.83 49.05 48.89 49.30 50.04 48.74 47.58 46.69 46.22 46.20 46.25 45.94 44.74 45.01 44.87 43.96 43.36 42.61 42.03 41.90 41.98 42.16 42.25 42.80 43.70 46.14 46.48 45.25 44.19 43.82 43.60 42.98 42.13 40.95 40.91 39.58
40.25 38.50 41.02 34.27 31.67 32.78 36.08 38.75 43.49 43.15 44.34 46.66 46.80 47.53 47.84 48.35 48.32 47.92 47.01 46.64 46.09 45.51 45.46 44.98 42.88 41.63 41.83 41.95 41.88 41.54 41.61 41.37 41.07 41.57 42.09 41.99 43.51 44.28 44.99 44.34 44.25 43.66 43.25 42.55 42.48 41.41 40.15 39.81 39.62
43.02 42.11 36.95 36.01 29.54 27.37 32.76 34.00 38.08 40.34 42.55 45.17 45.33 46.51 47.09 46.74 46.32 46.22 45.92 46.03 46.66 46.06 43.87 42.32 42.07 41.04 40.81 41.37 41.56 41.14 41.24 41.73 41.79 41.88 41.30 41.92 43.06 44.14 44.28 43.46 42.81 42.97 43.13 42.09 40.74 40.35 39.70 38.71 39.30
40.57 38.33 36.29 36.68 33.40 29.88 28.21 34.41 41.13 42.13 44.70 44.60 46.66 45.97 46.15 45.65 45.60 44.64 44.45 45.25 45.77 43.65 41.79 40.93 40.21 40.95 40.55 40.60 40.80 41.23 41.30 41.64 41.67 41.23 41.33 41.46 42.41 43.17 42.84 42.36 42.25 41.80 40.63 40.56 40.00 39.10 38.12 37.47 38.19
42.21 39.25 38.00 33.57 30.29 29.94 30.79 34.83 39.79 40.84 42.22 44.96 44.25 43.77 44.82 45.24 43.94 43.61 42.78 41.96 41.24 40.65 40.62 39.95 40.77 40.62 39.62 39.68 39.87 40.20 41.00 40.99 40.50 40.36 40.49 40.78 40.50 40.97 40.53 40.95 40.78 40.59 40.06 39.22 38.37 37.76 37.65 36.80 35.57

GFSSGP_sfc_wetblb_006.txt.gz
Wetbulb
62.92 60.43 58.05 56.64 49.83 49.52 47.54 48.67 57.40 57.74 58.47 62.40 62.85 60.12 58.40 59.66 58.85 55.69 68.87 70.43 71.71 71.31 71.62 71.17 70.82 71.28 71.55 71.64 71.75 71.80 71.79 71.15 70.83 70.48 69.90 69.46 68.85 68.51 68.44 68.27 68.43 67.39 66.68 66.01 65.01 64.45 64.31 63.98 64.21
57.13 54.61 57.12 55.24 47.43 45.44 47.33 50.25 53.23 58.95 60.09 60.86 59.60 59.98 57.79 55.16 62.90 66.01 67.11 70.48 70.96 71.54 72.18 71.56 70.32 70.80 71.39 71.43 71.42 71.56 71.46 70.95 70.75 69.90 69.36 68.78 68.14 68.00 67.83 67.25 67.34 66.19 65.24 64.53 64.05 63.71 63.41 63.75 64.46
55.30 56.39 52.85 49.52 46.85 45.20 47.13 53.43 58.20 59.38 59.83 58.29 56.18 59.32 57.58 55.69 62.01 66.39 68.80 70.60 71.27 71.41 71.62 71.38 70.20 70.42 70.60 70.95 70.73 70.91 71.34 71.33 70.45 69.69 68.92 68.29 67.39 67.22 66.64 66.13 65.62 64.45 64.32 64.40 64.47 64.30 63.80 64.32 64.86
53.36 54.69 53.83 46.85 45.52 47.05 50.75 57.56 58.87 58.33 59.69 59.11 57.13 53.80 59.58 62.63 62.70 66.88 69.45 70.84 70.19 70.97 71.52 69.03 69.23 69.39 69.53 70.50 70.40 71.32 71.32 71.03 70.48 69.83 68.58 67.71 66.73 65.91 65.41 64.88 64.08 64.46 64.89 64.88 64.77 64.56 64.44 64.75 65.17
54.74 53.57 47.30 45.78 46.20 48.33 54.17 59.45 59.56 57.55 57.62 57.88 59.11 55.64 56.43 64.45 68.09 68.89 70.31 69.96 68.84 69.74 70.90 70.22 68.18 68.72 69.67 70.22 70.75 71.10 70.61 70.47 69.90 68.85 68.17 67.24 66.02 64.76 64.38 64.19 64.04 64.38 64.83 64.69 64.63 64.68 64.81 64.91 65.32
50.52 52.55 45.63 44.60 45.94 50.78 52.58 59.66 59.62 57.42 56.27 56.91 56.98 58.61 59.76 67.47 68.50 69.37 70.27 69.00 69.26 69.75 70.27 69.99 69.37 69.39 68.81 69.17 70.10 69.85 69.51 69.64 69.04 68.42 67.49 66.77 65.62 64.82 64.65 64.51 64.56 64.29 64.36 64.53 64.58 64.62 64.80 65.19 65.21
50.65 48.45 45.79 46.31 48.83 51.08 53.21 60.28 57.96 56.41 55.31 56.77 59.93 57.54 62.53 66.09 68.57 70.40 69.78 69.64 70.05 71.01 70.58 70.52 70.37 70.24 68.72 68.63 68.63 68.36 68.66 68.71 68.20 67.76 67.05 65.96 65.34 65.08 64.93 65.04 65.21 65.26 64.83 64.90 65.09 65.09 65.35 65.57 65.45
52.94 49.88 45.87 48.65 49.52 50.85 56.69 58.92 57.40 54.36 53.93 61.55 62.40 56.82 59.06 65.49 69.04 68.84 68.55 69.23 70.08 70.20 70.28 70.48 70.83 71.31 71.30 71.19 68.14 68.34 68.25 68.00 67.74 66.91 66.17 65.73 65.81 64.98 65.18 64.31 65.31 65.52 65.45 65.48 65.78 66.24 66.24 65.73 65.72
52.98 46.79 45.88 49.50 50.97 53.13 57.80 55.05 58.11 58.09 57.78 59.89 60.11 61.94 65.88 68.26 68.56 67.86 67.20 67.70 68.75 68.77 69.19 69.74 69.98 70.28 70.18 70.53 69.59 68.20 67.75 67.11 66.73 66.66 65.92 65.82 67.93 67.31 65.75 64.71 64.82 65.68 65.80 66.09 66.13 65.71 65.30 64.97 65.21
50.35 47.39 48.35 53.61 54.66 53.86 54.34 54.64 56.47 57.34 57.71 57.45 60.60 65.16 67.52 67.16 67.14 66.07 65.69 65.03 66.03 67.35 67.49 68.79 69.32 68.89 69.76 68.58 68.84 67.82 66.82 67.45 67.36 67.50 68.02 68.85 68.24 68.26 66.70 65.77 65.21 65.33 64.85 65.31 63.64 63.02 63.27 64.62 64.01
50.83 47.73 49.54 49.96 54.05 55.30 53.77 54.19 57.40 56.92 55.66 57.77 59.35 63.16 64.87 65.11 65.56 64.64 64.02 64.39 64.52 65.70 66.45 67.22 67.53 68.12 68.45 67.53 66.86 65.83 65.90 66.77 67.52 67.77 68.41 68.43 68.48 68.54 67.64 66.65 67.04 67.25 63.44 65.05 63.60 63.56 62.74 63.34 62.69
48.17 49.65 48.60 46.73 47.40 52.38 52.96 55.29 55.61 56.24 55.51 59.38 64.15 64.82 65.76 64.55 64.57 65.11 65.22 64.97 65.79 65.90 66.69 66.85 67.24 67.59 67.49 65.85 65.27 65.71 65.92 67.19 67.59 67.98 68.76 68.44 67.32 67.08 65.29 65.15 65.50 65.63 64.94 62.55 62.40 62.24 62.11 61.53 60.38
48.69 48.81 47.40 46.97 49.78 54.33 55.21 55.53 55.82 53.64 59.59 63.37 64.66 64.64 64.62 63.73 64.02 64.29 64.64 64.83 64.95 64.40 65.78 65.99 66.17 65.61 65.36 65.73 66.18 66.82 67.46 67.89 68.91 69.88 68.56 67.35 63.87 63.50 64.29 64.34 63.60 63.04 63.12 62.05 61.11 60.41 59.38 58.54 57.91
49.39 47.18 46.26 47.17 50.39 49.86 53.47 52.38 53.73 51.58 59.22 61.91 62.90 62.73 63.95 63.99 63.18 63.03 63.04 62.90 62.98 64.58 64.87 65.02 64.43 65.62 66.74 66.97 67.24 65.24 65.00 65.13 65.61 68.08 66.54 63.79 63.29 61.46 61.95 61.42 60.73 61.36 61.41 61.03 59.30 57.91 56.82 56.58 56.66
48.99 45.59 47.13 48.50 49.90 48.45 50.26 47.44 48.56 53.26 57.09 60.29 60.82 62.13 63.21 63.64 63.66 61.64 61.98 61.64 63.16 64.84 64.99 64.42 65.37 66.59 65.56 65.05 64.94 64.14 63.79 62.65 64.73 66.41 65.17 63.38 62.30 60.67 59.54 59.38 60.20 60.11 59.73 58.41 57.61 56.87 56.52 55.69 55.36
46.24 46.94 43.41 47.52 48.37 48.16 48.23 43.81 50.29 54.45 56.90 58.90 60.46 61.42 61.78 61.99 61.80 62.28 62.43 61.86 63.73 65.00 64.42 64.23 64.63 65.05 64.15 63.17 59.40 58.68 60.09 62.14 63.23 61.41 61.06 60.37 56.82 58.57 58.96 58.40 56.76 55.66 55.81 55.61 55.66 55.27 54.58 54.32 54.17
45.74 41.54 43.02 44.17 49.67 48.19 47.95 45.27 50.76 55.20 56.29 56.36 58.46 59.50 59.07 58.61 60.12 61.65 61.84 62.42 63.81 65.13 64.80 64.39 64.66 62.34 60.00 60.36 58.84 59.74 58.75 58.39 57.98 57.28 56.73 55.18 54.97 55.69 57.12 56.67 56.55 56.99 56.28 55.56 54.47 53.95 52.99 52.00 52.29
41.77 41.70 43.53 43.29 48.22 48.43 47.95 48.15 50.76 54.08 55.75 55.55 57.03 57.93 58.20 58.26 59.07 60.95 61.17 62.93 64.47 65.58 65.35 64.39 63.84 63.79 64.19 64.46 61.36 59.88 58.72 57.98 57.66 56.81 56.33 55.95 56.60 56.38 58.04 57.10 56.18 55.49 54.54 53.89 53.29 52.62 52.96 52.05 51.76
45.66 44.82 43.56 46.38 49.25 49.09 48.31 48.58 49.67 53.04 54.94 55.50 56.28 56.49 57.10 57.77 59.76 61.52 62.81 63.89 64.49 65.26 64.52 64.24 63.19 63.55 64.31 62.45 61.12 59.78 59.50 58.29 56.77 56.42 55.64 55.30 55.24 54.93 55.12 55.37 55.15 54.70 53.77 53.57 53.52 52.56 51.50 50.72 51.50
45.89 44.43 44.88 46.16 48.44 49.21 49.09 48.27 50.28 51.46 52.42 55.04 56.06 56.83 57.13 57.45 59.01 60.44 62.17 63.19 63.63 63.49 63.72 63.55 63.14 63.40 62.19 61.36 60.78 61.16 61.41 58.03 55.92 56.03 55.27 54.79 54.20 54.07 54.10 54.62 54.25 54.05 53.20 53.28 52.86 51.29 49.23 48.98 49.97
46.70 45.41 45.61 44.85 47.35 49.54 49.22 47.15 48.77 50.67 52.31 53.17 55.21 56.70 57.33 58.11 58.67 60.11 61.46 62.70 63.74 63.48 63.82 63.18 62.37 60.41 59.53 58.72 59.14 57.83 57.70 56.90 57.34 55.92 55.52 54.53 54.60 54.14 53.86 53.91 53.77 53.48 52.88 51.54 51.52 50.40 48.69 46.49 47.65
44.57 47.21 46.99 46.02 45.58 42.10 47.80 41.30 47.42 49.95 50.39 52.27 53.57 55.58 56.92 58.47 60.16 60.94 61.72 62.52 63.16 63.48 63.09 61.23 59.07 57.76 56.27 56.15 56.47 55.63 54.50 53.71 53.29 53.74 54.45 54.14 54.37 53.90 53.40 53.09 53.20 52.82 51.96 51.08 50.59 49.52 48.16 46.32 43.62
45.90 49.48 47.99 47.08 46.19 45.05 45.06 43.05 46.85 49.97 48.75 50.77 53.16 55.11 56.80 58.29 58.86 58.51 59.10 60.02 58.98 58.16 57.79 57.39 56.01 54.98 55.44 55.30 55.58 54.51 53.18 53.16 53.41 53.07 52.09 52.64 53.01 53.03 52.40 52.21 52.20 51.67 50.98 50.78 50.14 48.62 46.53 45.82 44.09
49.45 48.29 47.60 47.35 46.23 40.01 43.76 43.12 44.11 47.32 49.58 51.47 53.15 53.69 54.88 55.66 55.67 55.84 56.59 55.81 55.15 56.10 55.84 55.62 54.54 53.63 53.85 53.61 53.45 52.80 51.67 50.15 48.69 47.61 47.01 46.77 46.73 47.29 48.09 48.44 50.67 51.50 51.06 50.36 49.28 48.06 45.57 44.47 43.40
48.89 46.61 40.16 38.05 38.72 37.66 43.26 41.97 44.60 49.39 51.39 53.44 52.83 52.91 54.13 54.22 53.56 53.34 53.25 53.42 53.86 54.39 54.44 53.90 53.13 51.69 52.73 52.41 51.06 49.48 47.77 46.81 45.68 45.03 44.45 44.47 44.52 45.20 46.13 47.51 48.38 49.84 50.58 49.24 47.53 46.18 44.41 43.75 42.14
47.32 46.52 40.68 31.92 34.70 38.30 42.63 39.24 45.41 49.00 52.23 55.01 54.66 53.98 53.85 53.43 53.74 53.89 54.09 54.44 54.08 53.30 53.07 52.86 52.31 51.15 50.20 48.52 46.78 46.91 46.59 46.24 45.81 45.65 45.33 44.91 44.69 45.54 47.64 48.77 49.72 49.71 48.00 45.63 45.04 46.00 44.44 43.32 42.12
44.84 43.12 46.77 40.66 39.16 38.90 41.79 44.78 48.39 48.69 49.36 52.62 52.90 52.86 52.62 53.44 53.69 54.33 54.34 53.80 53.23 52.53 52.39 52.54 50.50 47.97 46.85 46.96 46.19 46.62 46.52 45.95 45.62 45.91 46.04 45.08 45.45 45.63 47.29 48.87 48.24 47.06 45.63 45.18 45.63 44.44 43.08 42.47 41.78
46.88 47.65 41.46 43.15 33.59 32.01 39.51 40.72 42.94 45.77 47.26 50.39 51.29 51.71 52.35 53.57 53.85 54.06 53.14 52.10 52.42 52.44 51.62 50.09 48.79 47.40 45.48 45.15 46.53 46.19 45.97 46.02 46.20 45.78 44.61 44.55 45.13 45.64 46.61 47.16 46.65 44.83 44.99 45.15 44.41 42.92 42.23 41.04 40.66
44.21 43.67 42.48 43.70 40.92 35.43 33.59 39.16 47.82 47.59 49.36 49.56 51.33 52.32 52.90 53.38 53.51 53.17 52.32 52.27 52.00 51.19 49.17 48.10 47.28 45.66 44.31 46.26 45.81 45.97 46.39 45.51 45.52 44.58 44.32 44.10 44.57 44.53 44.77 45.68 45.56 44.54 43.76 44.09 43.28 41.72 40.87 39.68 39.76
46.88 44.67 43.91 38.96 35.99 38.91 38.31 39.01 46.58 48.21 49.44 51.55 51.83 52.57 53.93 53.92 53.74 52.69 51.66 51.61 50.61 48.59 47.43 46.71 46.53 45.95 45.86 45.05 45.17 45.29 45.79 44.90 44.20 43.98 43.60 44.07 43.60 44.06 43.65 43.83 43.74 43.70 43.30 42.97 41.11 40.13 40.11 39.51 38.71

GFSSGP_sfc_wetblb_012.txt.gz
Wetbulb
61.08 59.78 60.00 55.92 46.46 47.50 45.33 47.99 52.42 55.48 58.26 61.44 61.85 60.83 59.86 61.59 59.32 54.58 67.86 69.59 68.83 68.44 69.58 69.97 71.06 71.22 71.39 71.44 71.75 71.80 71.87 71.44 70.83 70.04 69.58 69.09 68.56 68.27 68.75 68.41 67.43 67.27 65.86 65.06 65.41 65.38 65.08 64.62 64.39
58.57 58.98 57.92 51.14 44.19 42.65 45.35 50.67 54.87 58.25 60.36 61.23 60.90 60.40 59.11 59.15 65.32 65.86 66.90 70.34 69.93 68.75 68.44 69.41 70.88 70.82 70.95 71.15 71.36 71.12 71.46 70.83 70.16 69.53 68.66 68.58 67.63 67.23 67.27 67.25 67.08 67.46 66.24 65.89 65.67 65.82 65.75 65.73 65.67
61.10 59.79 48.93 46.68 45.03 43.43 45.60 52.04 55.90 59.50 60.51 59.40 57.96 60.27 58.71 59.82 65.51 66.24 69.77 70.18 70.45 68.52 68.79 70.07 70.36 69.73 70.12 70.65 70.43 70.49 70.55 70.31 69.59 68.90 67.90 66.91 66.47 65.98 65.75 67.22 67.25 66.79 66.15 65.94 66.14 65.96 65.92 66.04 66.67
55.77 52.32 49.54 44.71 43.52 47.95 48.95 53.94 59.32 58.66 59.98 60.58 59.50 55.68 59.00 63.08 65.40 68.62 69.74 69.70 69.72 69.43 68.84 68.96 68.80 68.79 69.78 69.71 70.46 70.57 70.14 69.45 68.87 68.54 67.81 65.88 65.21 64.83 65.84 66.98 67.10 66.17 66.04 65.99 65.73 65.73 65.89 66.57 66.28
55.58 50.05 43.67 43.52 45.59 48.79 52.59 58.72 57.32 54.78 56.61 55.46 56.87 54.49 56.08 63.72 67.28 69.69 69.09 69.69 68.35 67.51 67.73 67.99 67.13 68.56 69.21 69.42 70.36 70.08 69.69 69.05 68.57 68.15 67.05 66.21 64.81 64.82 65.80 66.70 66.45 65.66 65.53 65.51 65.49 65.73 66.43 66.70 66.32
48.54 49.05 42.46 41.44 44.81 49.10 52.12 58.26 56.12 54.64 55.95 56.11 55.53 56.54 57.95 64.84 66.32 67.85 68.19 68.08 67.73 67.04 67.69 67.16 67.59 68.19 68.35 68.98 69.32 68.91 68.74 68.50 68.16 67.45 66.30 65.87 66.25 66.41 66.51 66.79 66.67 66.50 66.52 66.54 66.71 66.78 66.67 66.52 66.20
48.63 45.97 43.25 45.03 45.71 49.32 51.20 59.75 56.22 55.00 55.71 55.53 59.53 54.61 55.81 63.21 66.12 65.06 65.42 66.33 66.91 67.83 67.24 66.51 66.99 68.66 68.25 67.71 67.69 67.73 67.90 67.69 67.52 66.81 66.19 66.32 66.26 66.33 66.74 66.99 67.03 66.78 66.75 66.92 67.11 66.78 66.47 66.40 66.22
50.00 47.96 44.66 46.22 46.10 48.39 54.62 57.18 56.32 54.11 55.83 60.82 59.20 52.05 55.86 63.82 66.40 63.98 64.77 64.21 64.02 65.35 67.04 66.53 67.11 67.51 68.03 67.21 66.88 66.92 66.92 66.67 66.49 65.95 65.49 65.39 65.77 66.01 66.03 66.55 66.66 66.58 66.20 66.16 66.26 65.33 64.65 65.30 65.21
51.82 44.54 43.34 45.80 47.48 51.49 53.74 51.85 56.74 58.95 56.66 58.92 58.92 55.81 59.34 66.71 67.13 66.07 65.38 60.54 60.56 63.30 66.11 66.81 66.59 67.49 67.85 67.25 66.79 66.93 67.14 66.17 66.07 65.26 65.15 64.02 64.22 64.58 65.01 65.56 65.78 65.86 65.19 65.36 65.41 64.03 63.88 64.02 64.04
47.84 44.99 46.30 54.33 55.49 53.46 53.38 51.72 53.28 55.35 54.57 57.65 59.44 57.75 59.65 65.57 65.41 64.72 64.64 61.04 59.68 62.53 65.05 66.21 66.86 66.57 66.90 66.18 66.15 64.91 64.68 63.58 64.18 64.41 64.27 64.87 65.48 62.84 63.30 65.18 65.48 65.98 64.95 64.57 64.98 64.34 64.44 63.78 59.09
48.73 45.32 49.89 52.28 53.25 53.87 53.71 53.32 57.18 55.12 52.09 54.28 55.26 60.64 64.24 64.17 64.01 64.12 64.22 64.33 63.53 64.46 65.66 66.59 66.76 67.18 66.38 65.00 64.60 63.19 64.19 64.29 66.05 65.91 66.28 65.70 66.08 65.34 64.63 64.22 64.65 63.75 64.24 62.75 62.54 61.75 60.97 59.55 58.11
46.49 48.91 50.63 53.08 53.94 53.34 53.80 56.23 51.66 52.64 52.44 54.39 57.43 62.14 63.41 63.10 63.19 63.91 62.70 63.55 64.14 64.71 65.27 66.11 66.23 65.00 64.07 63.07 62.72 63.29 64.18 65.31 65.20 66.04 65.57 65.55 65.36 64.47 63.89 62.65 61.75 60.95 61.58 61.17 60.60 59.41 59.83 57.42 57.20
47.80 49.53 50.99 52.05 52.73 53.41 54.93 53.53 52.24 52.25 55.67 58.11 58.37 62.28 62.53 62.93 63.39 63.56 63.11 63.93 64.10 63.68 63.77 64.08 65.14 64.83 65.00 64.40 65.65 66.00 65.73 65.98 66.34 66.25 66.19 65.58 63.86 62.33 61.60 60.94 60.69 61.14 61.11 60.00 57.65 55.99 55.39 54.35 54.22
49.98 50.19 49.07 50.69 51.68 54.95 52.14 52.30 54.07 55.30 58.38 59.61 60.06 60.43 61.74 62.36 61.51 61.47 62.11 62.00 63.12 63.09 63.57 64.32 63.61 65.10 65.90 65.94 64.84 64.37 64.44 64.39 64.37 65.66 66.12 65.11 63.80 62.31 60.96 60.39 57.83 58.26 56.68 56.36 55.99 55.08 53.74 53.67 53.59
51.05 47.68 47.75 50.80 51.50 52.23 53.53 49.75 51.37 57.52 59.28 58.23 58.20 59.02 59.81 60.78 60.86 60.97 61.55 61.65 63.01 63.42 63.55 62.85 63.72 66.67 65.55 64.99 64.31 63.23 60.94 62.13 63.32 64.18 64.78 64.81 60.18 59.53 57.78 56.70 57.73 56.16 56.13 55.60 54.59 53.53 52.61 51.90 52.60
47.18 47.38 42.37 49.69 51.31 51.94 50.14 44.95 52.04 57.74 56.99 56.46 56.93 57.59 58.28 58.87 59.77 60.94 61.51 62.07 63.36 62.92 62.54 63.79 65.55 65.35 64.18 61.66 61.12 61.75 62.96 62.05 59.88 60.09 58.73 58.05 57.47 57.42 57.15 56.80 55.86 55.52 54.62 53.61 52.88 52.51 51.36 50.77 50.59
46.33 41.77 44.61 45.92 51.17 48.85 46.73 45.87 51.68 57.10 56.59 55.52 56.76 57.46 58.12 58.15 58.83 60.07 60.98 62.56 62.98 62.71 63.23 64.46 64.93 63.60 61.68 62.67 62.34 62.80 61.67 58.57 57.70 57.79 57.31 57.30 56.85 57.44 56.77 56.14 56.11 54.85 54.36 53.52 53.16 52.14 51.18 50.04 49.53
41.42 41.71 44.69 44.30 47.89 46.58 45.55 47.12 50.70 54.32 52.94 51.45 56.62 57.59 58.19 58.22 58.19 59.90 60.13 62.61 64.04 63.57 63.58 64.40 64.42 63.79 62.75 63.71 61.48 60.84 59.31 58.77 58.12 56.97 56.78 56.91 56.13 56.61 55.25 55.75 54.09 53.59 53.05 52.27 52.24 51.10 51.10 49.96 48.53
46.52 44.72 43.72 46.03 47.42 45.76 47.06 47.26 49.54 52.38 55.56 55.75 56.34 57.27 58.07 58.82 60.73 61.30 61.14 62.42 64.05 63.94 63.52 63.74 63.32 63.11 63.37 62.12 58.96 58.32 57.22 57.21 56.31 55.74 56.46 55.42 55.48 55.19 54.46 53.78 53.63 53.32 51.75 51.35 51.01 49.90 48.57 47.62 47.06
46.50 44.72 43.60 46.02 47.52 46.58 46.25 46.48 49.18 51.72 52.58 54.63 55.78 56.85 57.63 58.75 59.91 61.23 61.79 61.71 63.20 63.53 63.47 63.59 63.19 63.43 63.45 61.55 60.51 60.30 57.82 56.40 55.77 55.90 55.29 55.33 54.93 54.20 53.22 53.04 51.74 51.93 50.32 50.10 49.46 47.53 46.18 45.78 45.81
45.65 44.68 44.78 44.27 45.87 47.14 47.56 45.49 47.42 50.87 53.04 54.04 55.24 56.79 58.09 58.49 59.27 60.49 60.82 62.17 63.94 62.65 62.80 63.58 62.09 63.33 61.37 60.09 59.11 57.58 56.73 55.92 55.24 54.75 54.19 54.54 54.47 53.07 51.94 51.21 50.53 49.92 49.15 47.78 47.44 46.25 45.93 43.00 43.29
43.36 48.91 47.28 46.34 44.70 39.85 47.55 38.34 43.91 49.23 49.93 52.77 54.69 55.87 56.66 58.05 59.91 60.48 61.36 61.79 62.77 61.77 63.23 62.92 62.87 59.72 59.90 59.43 57.25 56.17 54.13 52.05 53.00 52.74 51.57 50.46 50.15 48.43 47.12 47.17 47.24 46.47 47.65 47.35 47.16 46.93 45.54 44.15 40.49
45.68 49.29 47.90 47.00 45.04 45.12 44.34 41.13 44.21 47.31 48.18 50.80 53.90 55.98 57.54 58.92 59.72 60.46 61.24 61.65 62.52 61.73 62.87 62.12 59.41 57.83 57.77 57.61 56.97 54.95 53.10 52.74 51.02 48.67 47.61 47.40 46.94 47.41 46.97 46.40 46.31 45.68 45.61 45.68 46.88 46.95 45.25 43.86 41.28
50.92 47.52 48.07 46.63 45.11 38.78 42.26 41.10 40.88 44.35 47.12 51.02 53.22 55.52 57.22 58.40 60.03 61.01 61.55 61.81 61.29 62.18 61.19 58.83 56.61 55.85 56.67 55.75 54.60 52.25 49.69 47.85 46.58 45.57 44.99 44.89 45.30 45.26 45.99 46.60 45.82 46.26 46.13 45.92 46.72 45.17 43.32 42.64 41.06
48.35 45.53 38.59 36.53 37.41 36.70 44.80 42.06 43.94 47.75 50.77 50.38 50.81 54.90 57.15 59.08 59.64 60.25 60.18 60.66 60.37 59.12 57.70 56.55 55.24 54.30 54.92 53.56 50.85 49.65 48.15 47.18 46.07 45.30 44.64 43.74 43.31 43.46 44.06 44.58 45.02 45.35 46.29 46.19 44.89 43.50 42.57 42.01 40.31
46.52 44.16 39.68 29.58 30.36 36.43 44.56 38.90 43.75 51.80 53.25 52.69 55.31 56.71 58.33 58.91 59.76 59.63 59.55 58.61 57.76 56.68 56.10 55.24 54.27 53.55 53.27 50.46 48.91 48.99 48.38 46.85 46.41 45.83 45.07 44.10 42.93 43.05 43.59 44.08 44.90 45.61 45.94 44.24 44.06 43.28 42.71 42.24 40.98
44.60 42.96 47.59 41.54 41.73 39.12 41.06 43.35 46.63 50.70 50.45 52.09 55.10 56.04 56.59 57.54 57.63 57.49 57.89 56.34 55.70 55.44 55.29 54.74 53.89 53.43 50.51 49.10 48.88 48.25 47.54 47.05 46.16 46.24 45.50 43.89 43.40 43.49 43.19 43.75 43.85 44.75 44.13 43.96 43.20 42.56 41.46 39.64 39.75
47.60 48.61 42.46 43.41 33.73 31.64 37.92 40.37 42.22 47.07 48.61 50.40 53.54 54.50 55.65 56.61 56.18 55.89 55.72 55.26 55.32 55.74 55.44 55.16 54.49 51.86 49.26 49.26 48.68 47.69 47.35 47.45 47.08 45.40 43.72 42.79 42.93 43.23 43.11 42.93 42.62 42.98 43.62 44.04 42.62 41.80 41.38 39.44 38.36
45.71 43.62 44.76 44.01 43.37 36.98 34.88 38.79 47.31 47.10 49.41 50.84 52.53 55.38 55.42 55.71 55.28 54.61 54.60 55.21 55.54 55.63 54.97 54.38 53.75 50.05 48.71 48.71 47.74 47.36 46.61 46.93 46.62 44.83 43.46 42.71 42.77 42.88 42.38 42.50 42.22 41.86 41.60 41.56 40.45 40.19 39.34 38.98 37.52
48.31 46.76 45.16 41.15 38.32 42.86 40.31 39.16 49.33 49.68 50.04 52.17 52.52 54.97 55.94 55.97 55.48 54.84 55.06 55.37 55.45 54.79 54.27 53.46 52.12 49.56 49.09 48.42 47.48 46.93 47.39 47.04 45.46 44.53 43.47 42.94 42.11 42.57 41.99 42.23 41.88 41.99 41.69 40.46 39.72 38.67 38.30 37.52 36.34

GFSSGP_sfc_wetblb_018.txt.gz
Wetbulb
57.13 55.27 52.37 49.75 39.05 34.99 32.13 37.73 42.67 48.21 52.24 56.32 60.65 59.52 58.11 59.68 57.76 49.48 66.61 68.01 69.05 69.37 70.32 70.29 70.37 70.97 71.48 71.99 71.55 71.03 70.61 69.89 69.14 68.87 68.87 68.31 67.60 67.80 68.09 67.85 67.72 68.09 67.28 66.75 66.38 66.06 65.98 65.81 65.76
53.87 53.65 49.68 44.32 33.67 29.74 33.34 41.13 48.60 52.29 54.94 55.96 55.60 57.94 58.62 58.45 63.84 64.42 64.69 67.93 68.11 68.86 69.37 69.37 70.40 70.75 71.55 71.34 70.93 70.21 69.58 68.97 68.89 68.26 67.63 67.87 67.50 67.63 68.31 67.90 67.77 68.15 66.88 66.43 66.14 65.95 65.73 65.62 66.08
54.55 55.98 46.98 39.71 31.28 31.06 33.48 45.48 51.40 53.46 55.33 54.42 53.12 54.51 57.96 60.33 64.08 63.91 65.89 66.38 67.24 67.62 68.28 69.27 70.10 70.56 71.06 70.75 70.11 69.59 69.45 69.21 68.78 68.31 67.52 67.50 67.43 67.15 67.63 67.82 67.80 67.66 66.54 66.13 66.04 65.80 65.68 66.24 66.32
52.12 46.07 43.25 34.33 32.43 37.00 39.03 45.49 54.03 53.95 55.47 55.93 53.09 50.73 58.31 64.31 65.36 65.91 66.82 67.20 67.13 67.41 68.44 68.43 69.17 70.23 70.23 70.18 69.80 69.19 68.75 68.08 67.81 67.58 67.73 67.70 67.16 67.04 67.99 67.63 67.65 66.44 66.11 65.87 65.80 65.54 65.85 66.26 66.02
48.59 41.47 33.39 31.41 34.57 40.35 44.31 51.06 54.52 52.91 53.54 54.04 53.05 51.44 55.77 63.42 65.89 66.21 66.80 67.22 66.72 66.70 67.20 67.34 67.80 68.45 68.87 69.64 69.35 68.86 68.18 67.58 67.08 67.09 67.50 67.67 67.65 67.12 67.78 67.32 67.29 66.71 66.03 65.72 65.60 65.68 66.42 65.82 66.02
43.63 39.66 32.70 30.86 37.36 46.75 51.64 52.94 54.58 53.43 54.16 53.93 52.29 54.53 58.62 64.57 65.08 65.56 66.20 65.62 66.12 65.74 66.67 67.07 67.96 67.57 67.58 67.71 68.34 67.72 67.33 66.89 66.50 66.71 67.36 67.54 67.31 67.22 67.26 67.26 67.17 66.98 66.82 66.39 65.94 65.51 65.51 65.33 65.37
41.44 37.65 34.84 36.55 39.77 44.98 51.95 54.08 52.49 53.43 53.42 52.71 55.29 52.98 59.06 61.48 64.17 65.28 65.02 64.29 63.92 64.80 65.58 64.15 64.20 65.32 65.92 65.83 66.65 66.76 66.55 66.09 66.34 66.35 66.44 66.62 66.64 66.81 66.98 67.16 67.04 66.62 66.08 65.33 64.96 64.59 64.45 64.78 64.75
43.81 39.47 36.05 37.93 44.13 44.43 51.69 52.99 53.64 53.52 52.42 55.98 54.88 50.59 55.53 60.86 63.60 64.74 63.12 62.37 62.20 63.31 63.61 61.76 62.31 63.32 65.23 65.69 66.05 66.00 65.79 65.42 65.68 66.07 65.72 65.49 65.96 66.54 66.63 66.19 66.04 65.77 64.81 64.39 64.05 64.02 63.97 64.21 64.58
43.89 36.79 33.94 37.63 46.11 47.62 52.17 50.95 53.13 56.07 54.35 54.72 56.40 58.12 60.01 62.05 62.72 62.00 61.38 60.61 60.89 62.85 63.39 61.35 62.65 64.84 64.70 64.85 65.19 65.58 65.64 65.00 65.02 65.10 64.83 63.40 62.61 63.07 63.69 64.10 64.75 64.59 63.85 63.59 63.55 63.76 63.91 61.84 62.17
42.37 36.65 38.08 44.70 50.82 48.91 50.03 51.67 53.19 53.27 52.87 53.48 55.58 58.47 60.97 60.71 60.11 59.21 58.34 58.14 58.20 58.51 60.67 62.72 62.36 64.58 64.79 64.71 63.67 62.30 63.04 61.98 61.58 61.76 61.69 60.87 60.81 61.22 62.61 63.67 63.97 63.98 63.49 63.60 62.44 63.05 60.48 57.12 53.25
41.76 39.77 44.07 50.17 50.08 51.81 50.37 51.17 53.89 52.10 50.08 52.65 53.75 56.85 58.91 58.88 59.31 58.90 58.40 59.21 56.83 57.88 59.46 60.59 62.33 63.92 63.83 62.60 61.82 61.10 60.52 60.23 60.78 60.69 60.91 61.27 61.46 60.99 60.16 58.86 58.85 58.80 59.31 55.92 55.70 53.98 53.06 52.34 50.58
40.91 44.97 45.55 49.71 51.91 50.24 50.87 53.25 52.45 51.57 52.51 55.87 58.83 57.96 59.53 57.89 57.70 58.21 58.52 58.98 59.13 60.23 59.83 60.19 62.55 64.42 63.02 61.84 60.75 59.22 59.80 61.20 61.46 61.67 62.27 61.17 59.94 58.25 56.98 57.47 57.11 54.96 53.65 52.63 52.25 51.72 51.41 50.59 50.90
42.74 44.92 45.87 50.21 51.38 51.19 53.71 51.34 49.48 48.68 53.49 57.19 59.40 59.84 58.37 57.36 57.24 58.89 59.63 60.16 61.19 61.65 62.05 61.39 63.34 64.01 61.59 60.94 59.22 60.14 61.24 62.42 62.40 62.66 62.53 60.51 58.43 57.24 55.60 53.61 52.46 52.03 52.33 51.56 50.20 49.49 49.08 49.18 49.45
46.53 45.68 44.60 50.56 50.90 51.53 50.64 50.35 49.53 49.56 53.80 55.44 57.26 58.38 58.21 57.54 57.81 58.77 59.22 59.91 61.05 62.17 62.26 62.57 62.50 60.13 60.76 61.07 60.70 60.14 61.47 61.77 62.28 61.49 60.59 59.55 58.56 55.15 54.08 52.76 51.77 51.05 50.31 50.21 49.10 48.68 48.46 48.10 48.34
48.66 42.70 45.58 47.40 48.74 48.74 50.87 46.30 47.86 51.35 53.74 55.21 56.23 57.70 58.93 57.92 57.64 58.21 59.91 61.09 62.19 62.21 61.25 58.83 59.54 60.85 60.07 59.03 57.88 58.91 61.32 59.74 58.32 58.49 58.78 58.56 57.64 54.38 53.20 51.31 50.77 50.65 49.98 49.25 49.16 48.37 48.22 47.66 48.33
44.01 41.52 38.30 45.87 49.35 48.74 48.39 42.75 50.68 52.47 52.34 51.51 53.17 56.38 58.26 59.17 58.36 59.67 61.33 61.63 60.83 60.53 58.76 59.61 62.68 59.65 58.82 57.27 57.17 58.12 56.99 56.41 54.79 54.10 54.04 53.84 53.70 53.70 51.67 50.74 49.54 49.37 49.84 49.02 48.34 47.83 47.27 46.95 46.17
39.99 35.26 39.79 43.03 48.68 48.72 45.63 43.99 50.95 52.70 52.94 51.29 52.67 55.33 55.62 57.12 58.46 60.10 60.54 59.23 60.27 59.39 57.62 60.45 59.59 57.79 56.35 57.17 57.87 55.76 54.11 52.91 52.40 52.16 51.83 52.36 52.27 52.80 51.30 49.90 48.83 49.44 48.75 48.18 47.80 46.81 46.52 45.37 44.30
36.51 39.07 39.21 40.34 44.70 46.61 44.04 43.39 50.36 50.74 50.59 49.69 50.03 51.23 52.78 55.19 56.02 59.35 58.75 59.65 59.54 58.10 59.13 60.59 58.27 56.67 57.52 58.30 54.86 52.64 51.63 51.83 51.08 50.94 50.50 50.97 50.32 51.96 50.21 49.09 48.83 48.24 47.44 46.50 45.64 44.34 44.10 44.38 42.94
43.27 41.41 40.62 40.67 44.37 42.19 41.24 44.04 47.12 48.73 50.15 49.35 51.24 52.12 52.47 54.90 56.55 58.90 59.03 58.84 57.90 57.14 60.19 59.58 57.00 57.49 58.03 55.79 53.31 50.82 49.94 49.22 49.24 49.40 50.54 50.49 50.20 49.55 48.40 47.44 47.32 46.41 45.54 44.74 45.12 43.41 42.07 41.36 40.70
42.63 40.53 39.62 42.21 44.18 41.69 39.42 43.89 45.96 47.57 50.41 50.88 51.66 52.39 53.29 52.45 53.62 57.42 57.73 57.60 57.47 58.90 60.33 58.96 57.46 57.99 57.86 56.03 53.51 51.79 50.56 48.55 48.76 49.30 49.19 49.34 48.85 48.41 47.02 45.31 43.05 43.31 43.76 43.46 42.92 42.05 40.59 41.16 39.57
41.39 41.03 40.25 39.95 40.44 42.10 41.55 38.67 42.72 47.81 49.69 50.43 51.68 53.89 54.33 53.42 52.79 55.45 56.61 56.81 57.70 59.01 59.78 59.34 58.18 57.83 58.87 55.61 52.78 50.12 49.20 48.71 47.98 47.36 47.56 44.72 43.83 43.37 43.38 42.58 41.64 41.06 41.09 40.17 40.19 41.32 40.94 38.89 38.05
38.05 44.83 44.33 43.09 39.05 34.31 38.71 31.18 39.79 43.96 45.22 49.62 50.41 50.58 49.91 52.55 53.86 54.59 56.28 56.37 57.51 59.26 60.34 60.00 59.71 58.43 58.81 55.59 52.96 51.04 49.85 48.23 47.27 45.77 42.46 41.30 42.72 42.72 42.96 42.33 41.65 41.34 41.17 40.22 40.51 42.16 39.75 38.36 36.25
41.85 44.47 43.38 43.55 38.83 36.54 37.57 35.06 39.19 42.17 42.24 46.37 48.76 50.94 50.75 53.03 53.57 53.53 56.54 56.92 58.06 59.20 58.95 59.24 58.62 57.04 56.23 53.89 53.98 50.75 47.09 46.16 43.50 41.22 40.11 40.43 40.89 42.21 42.44 41.85 41.63 40.80 42.20 41.41 40.61 39.97 39.07 38.38 36.75
46.51 43.54 42.87 40.45 37.93 30.01 37.78 35.30 34.16 39.31 44.45 45.33 46.66 51.55 52.07 53.25 53.71 54.23 56.92 58.10 57.91 58.81 59.19 58.57 55.78 54.67 54.29 51.48 49.52 49.50 44.93 42.50 40.24 38.95 38.64 39.15 39.77 40.73 40.57 41.68 41.01 40.83 41.72 41.05 40.29 39.97 39.32 38.18 37.18
44.15 39.25 31.79 29.74 27.85 27.29 40.28 36.61 37.78 43.39 45.82 46.80 46.86 47.77 51.84 52.72 53.20 54.88 56.50 57.41 58.18 57.81 54.44 53.84 53.25 51.82 51.71 49.50 46.20 44.46 42.51 41.05 40.24 39.00 38.79 39.18 38.87 38.52 37.87 39.52 39.33 40.70 41.86 41.29 40.72 39.99 38.83 38.27 37.01
41.83 39.08 30.80 26.08 25.57 31.13 39.24 33.91 39.54 46.78 47.93 48.84 48.02 48.82 50.19 52.19 54.79 55.96 56.85 57.44 57.55 55.47 52.71 52.47 52.23 49.28 48.00 46.30 44.54 43.23 41.73 41.10 40.55 40.49 39.56 39.34 38.89 38.77 39.67 40.49 40.94 40.20 41.74 41.45 40.32 39.11 38.00 38.43 37.52
40.97 36.77 41.03 34.40 34.46 31.31 34.54 40.40 41.34 46.50 45.99 46.15 47.02 47.72 49.14 51.21 53.79 55.26 55.82 56.41 55.25 52.14 49.74 50.85 49.86 47.39 46.81 45.47 44.36 43.35 41.75 42.25 41.51 40.55 40.03 39.23 39.12 40.44 40.99 39.65 40.08 38.87 39.04 39.85 39.76 38.42 37.97 37.71 36.57
42.57 43.03 35.31 34.40 28.18 26.91 31.60 33.22 35.24 41.53 44.11 46.09 46.10 46.24 47.63 51.51 53.44 54.69 55.14 53.48 53.08 50.95 49.45 49.23 49.51 46.83 46.82 45.86 44.38 44.10 42.68 42.63 41.54 40.36 39.32 40.74 41.00 40.57 39.97 40.27 38.91 38.42 38.01 37.76 38.12 37.00 36.72 35.39 35.07
40.33 37.97 38.05 37.92 32.32 27.53 25.53 31.16 39.33 42.11 44.67 45.06 46.54 47.65 47.82 51.76 53.41 54.43 53.33 52.79 51.82 50.35 49.65 49.47 48.72 46.35 45.51 46.17 44.52 42.24 41.25 41.37 40.68 40.56 41.11 40.47 39.43 40.57 40.43 40.08 38.66 39.55 37.98 38.42 37.29 36.60 35.74 35.49 34.97
43.17 40.51 38.81 29.14 30.68 29.55 27.69 31.88 42.93 42.47 43.46 45.90 46.76 48.54 49.97 52.78 53.35 53.66 53.00 52.12 51.05 50.55 49.45 48.64 47.83 46.59 45.53 43.87 42.90 42.55 43.47 43.18 41.41 40.35 39.90 40.62 40.16 39.92 40.01 38.46 39.54 39.33 38.39 38.27 36.89 36.21 36.26 35.48 34.46

GFSSGP_sfc_wetblb_021.txt.gz
Wetbulb
56.13 53.64 50.60 48.41 39.01 34.07 30.51 35.78 40.81 44.68 52.14 56.96 60.04 59.00 57.67 58.08 55.46 48.32 65.23 66.94 68.93 69.01 69.69 69.86 70.29 71.14 71.55 71.41 70.94 70.49 70.17 69.66 68.42 68.10 68.13 67.86 68.10 68.33 68.35 68.30 68.15 68.07 67.79 66.72 66.48 66.48 66.09 66.10 66.89
52.09 52.26 48.13 41.62 32.77 28.42 31.98 37.96 41.29 48.74 54.52 55.54 57.38 59.09 58.37 58.71 62.94 64.01 64.59 68.39 69.08 69.51 69.46 68.99 70.21 70.92 71.25 70.65 70.25 69.74 69.10 68.40 68.42 67.42 67.27 67.84 67.62 67.74 68.40 68.27 67.91 67.84 67.49 66.56 66.53 66.44 66.09 65.76 66.64
52.80 53.47 45.36 37.00 30.03 29.47 31.53 40.68 50.58 52.52 54.33 53.52 51.73 55.51 58.29 59.65 63.51 64.17 66.97 68.23 68.93 68.94 68.89 69.28 70.24 70.44 70.74 70.04 69.46 69.06 69.06 68.70 68.25 67.77 67.47 67.20 67.51 67.19 67.82 68.18 67.86 67.69 66.54 66.66 66.50 66.42 66.03 66.23 65.62
50.82 46.95 41.05 33.06 31.59 35.74 37.84 41.26 53.06 51.92 53.99 54.64 52.06 51.43 59.91 64.70 64.31 65.56 66.79 67.91 67.29 67.87 68.47 68.62 69.77 69.98 70.12 69.82 69.61 69.17 68.73 67.95 67.39 67.62 68.42 67.96 67.74 66.95 67.96 67.91 67.67 66.66 66.22 66.12 66.06 65.91 66.60 66.14 65.17
46.00 40.09 33.48 29.45 33.87 38.08 43.55 51.20 51.66 52.32 52.59 52.95 53.55 55.00 58.27 64.02 65.73 65.74 66.63 67.32 66.65 66.20 67.08 67.79 68.59 69.14 69.00 69.55 69.23 68.56 68.15 67.74 67.47 68.04 68.07 68.34 68.30 67.55 67.91 67.49 67.50 66.90 66.01 65.60 65.36 65.81 66.25 65.84 64.61
41.74 37.65 31.19 29.16 35.89 40.31 50.39 51.37 52.82 52.88 53.14 53.02 55.07 55.37 58.72 65.25 64.57 65.73 66.05 65.08 64.94 64.43 64.52 66.60 67.95 67.58 67.45 68.33 68.18 67.60 67.42 67.02 67.37 67.72 67.88 68.17 67.69 67.56 67.52 67.43 67.29 67.10 66.69 66.25 65.47 65.18 65.70 65.90 64.69
39.84 36.11 32.26 34.33 37.64 44.00 49.50 52.54 51.77 51.70 51.27 52.23 56.71 54.41 58.93 62.00 64.14 64.78 64.01 64.38 62.40 62.26 62.11 62.10 63.99 63.81 64.76 66.16 66.40 66.37 66.57 66.31 67.02 67.17 67.02 66.99 66.76 66.82 66.98 67.01 66.85 66.45 65.94 65.18 64.97 64.89 65.22 65.62 64.17
42.37 37.99 32.48 34.62 41.97 42.96 50.34 51.82 52.56 51.77 51.30 56.57 55.98 53.24 55.05 61.72 63.23 63.29 63.04 61.52 59.95 60.97 61.52 60.89 61.71 63.43 64.22 64.81 65.60 65.31 65.39 65.76 66.31 66.51 66.09 65.87 66.02 66.40 66.31 66.15 66.01 65.37 64.66 64.72 64.69 64.84 63.96 65.30 63.06
41.22 34.70 31.28 35.06 44.96 45.55 50.50 48.87 50.77 55.73 54.44 57.14 58.40 58.04 60.59 62.80 62.26 60.60 61.20 61.44 58.93 59.43 60.17 60.17 60.75 61.01 63.35 64.41 65.02 65.34 65.44 65.49 65.40 65.18 64.98 63.42 62.56 62.68 62.04 64.18 64.25 63.88 63.29 63.81 64.45 63.32 61.52 60.53 61.31
39.98 34.50 36.16 41.08 46.85 47.53 49.09 49.61 53.08 53.07 53.85 54.51 56.13 60.03 61.68 61.66 60.56 58.99 59.17 58.88 57.53 58.16 58.95 59.13 59.22 60.87 63.51 64.89 63.33 61.99 62.08 61.91 61.76 61.80 61.43 60.96 60.76 61.14 62.01 63.13 63.52 63.55 63.02 62.66 61.88 60.29 58.74 54.80 51.28
39.60 38.27 40.83 46.95 49.78 50.57 48.54 50.84 53.35 52.02 49.64 53.69 55.56 57.21 59.12 59.82 59.40 59.27 58.45 58.08 58.62 59.22 60.08 60.64 61.55 62.92 63.72 62.18 61.44 60.51 60.16 59.56 59.96 60.27 59.54 60.14 60.29 59.97 58.99 57.37 57.47 55.75 57.09 53.10 53.17 52.43 51.29 50.18 50.19
38.00 42.96 43.86 45.49 49.82 50.23 49.96 52.53 52.04 50.79 51.25 56.91 57.49 58.10 58.09 58.12 58.13 58.52 58.35 57.19 56.59 58.50 60.44 61.11 61.54 62.82 62.82 61.25 60.06 59.46 58.88 59.53 59.63 59.84 61.20 59.74 58.33 56.74 56.61 55.30 53.68 52.30 51.57 50.67 50.19 49.88 49.41 49.03 49.61
40.49 43.41 44.18 47.34 51.18 50.65 52.72 49.73 48.67 48.42 55.60 57.41 58.11 57.88 57.38 57.49 57.53 58.95 59.34 59.29 58.02 57.74 58.67 59.66 60.89 62.88 61.98 60.21 58.59 58.03 59.22 61.02 61.28 60.90 60.90 59.21 57.17 54.87 52.71 51.26 51.21 50.74 50.27 49.49 48.39 48.12 47.94 47.82 48.32
45.49 45.95 44.09 46.49 49.58 51.49 49.52 48.97 49.57 49.74 57.27 56.20 57.40 56.55 56.22 56.40 57.05 57.71 58.41 58.61 59.96 60.25 59.55 59.81 60.69 62.86 60.71 59.41 58.47 58.92 60.92 61.27 61.38 60.35 59.79 58.46 55.94 53.49 51.99 50.66 50.07 49.52 49.13 48.48 48.04 47.41 47.43 46.88 47.12
46.72 42.60 44.98 46.36 48.40 48.55 50.37 46.72 46.79 51.02 55.98 56.42 57.00 56.39 55.47 56.61 57.52 57.24 58.46 58.93 60.16 60.95 61.42 60.91 61.04 60.40 59.67 59.64 58.81 59.45 61.23 60.46 59.54 58.98 58.84 57.80 54.98 53.53 51.12 49.88 49.67 49.10 48.36 48.16 47.81 47.32 47.35 46.60 46.90
43.12 40.98 39.30 44.42 47.47 48.41 48.39 41.74 48.98 52.14 54.15 53.68 55.47 56.30 55.86 56.64 56.93 57.88 58.53 59.99 60.99 61.34 60.20 59.21 62.05 59.48 58.50 57.23 57.88 58.88 58.18 57.36 56.93 56.93 55.67 54.36 53.45 52.09 50.11 48.85 48.17 48.76 48.58 48.03 47.40 46.68 45.93 45.52 43.80
39.18 34.80 37.79 42.33 47.57 48.29 46.07 43.34 49.03 51.97 52.79 52.33 53.03 56.07 56.46 56.37 56.52 57.74 59.05 60.78 61.05 60.67 57.97 59.02 59.29 57.88 56.33 56.79 57.34 56.68 56.49 53.59 52.33 52.20 51.89 52.41 52.31 51.63 49.48 48.33 48.45 48.05 47.28 46.66 46.67 45.55 45.15 43.42 42.04
33.77 35.98 36.76 38.93 43.59 45.60 44.49 45.19 47.69 50.23 50.57 51.24 51.32 53.98 55.88 56.03 56.17 58.36 59.86 60.68 60.31 59.02 57.57 59.21 58.12 56.29 56.32 56.18 53.36 52.75 51.09 50.97 50.56 50.29 50.27 50.33 51.38 50.46 49.06 48.01 47.16 47.05 45.80 44.76 44.13 41.94 41.68 42.06 41.17
41.14 38.19 37.73 39.86 43.61 42.40 42.90 44.41 47.86 48.79 49.06 48.42 49.24 50.94 54.23 56.09 58.04 59.62 60.25 58.77 59.07 56.00 58.85 58.15 56.23 55.70 57.06 53.49 50.63 49.65 49.30 48.73 48.93 48.81 49.03 49.52 49.24 48.57 47.19 46.67 45.78 44.97 44.01 43.64 43.18 41.53 40.43 40.02 38.69
42.25 39.07 38.23 41.15 42.35 41.57 39.20 41.59 43.99 47.70 48.83 49.63 50.40 50.92 52.79 55.23 55.42 58.25 57.70 57.47 56.93 56.54 58.94 57.24 56.86 56.78 56.44 54.25 51.13 50.50 48.89 47.64 47.47 48.10 47.91 48.09 47.87 47.21 46.74 43.06 41.38 41.83 41.16 40.89 41.18 40.85 39.77 39.69 37.87
40.83 38.70 38.18 39.19 39.20 40.19 40.45 38.75 43.13 47.38 48.15 49.11 51.01 52.65 52.93 53.88 53.41 56.38 56.61 56.46 56.13 56.52 58.65 57.76 56.91 57.40 56.41 53.81 50.84 48.40 48.14 47.49 46.73 46.04 45.85 43.74 44.10 42.74 41.88 41.36 40.90 40.49 40.03 38.90 38.59 40.37 39.93 37.72 36.55
37.98 42.80 41.75 40.60 36.36 33.16 38.11 31.21 38.00 43.60 46.11 47.08 50.07 49.71 51.18 52.35 53.54 56.27 56.46 55.66 55.78 56.66 59.11 59.41 57.66 57.71 56.61 53.51 50.98 50.10 49.09 46.84 46.08 45.71 41.29 40.00 41.99 42.15 41.71 41.44 41.15 40.79 40.87 40.19 41.15 41.32 39.20 37.61 35.62
40.81 43.81 41.82 40.82 37.14 36.13 36.09 33.03 35.39 41.57 44.20 46.44 48.08 49.88 50.96 50.99 51.77 54.49 55.94 56.61 56.65 57.41 58.51 59.40 57.77 57.34 57.75 54.11 52.67 50.08 48.83 47.78 44.03 40.67 39.55 39.25 40.41 41.12 41.25 41.53 40.60 41.52 42.45 42.01 40.97 39.39 38.23 38.25 36.79
44.75 41.79 40.64 38.50 36.34 29.38 35.29 34.00 32.63 37.45 43.96 47.47 48.60 49.72 50.99 49.36 51.49 52.44 56.24 56.72 56.65 57.58 58.28 58.49 57.31 57.09 56.60 54.71 53.41 51.01 49.10 45.60 40.99 38.37 38.06 38.44 39.09 39.20 40.46 40.89 40.63 42.13 42.07 42.45 41.75 39.38 38.27 37.31 36.78
42.33 37.62 30.41 29.00 27.37 27.14 37.91 34.70 36.45 42.00 43.85 45.40 44.99 47.46 49.39 50.33 51.78 50.98 54.32 55.06 55.96 56.54 57.26 57.67 56.55 56.93 56.41 53.56 52.51 50.71 48.96 46.12 42.98 39.36 38.48 38.20 38.44 37.58 38.46 38.53 39.69 43.33 43.70 42.58 41.68 39.58 38.80 37.53 36.26
39.45 38.05 30.06 26.08 24.90 29.61 37.54 32.31 37.70 44.31 45.73 46.40 46.69 46.40 47.77 49.09 51.75 52.46 54.54 55.45 55.89 56.77 57.37 57.50 53.73 52.37 50.29 51.30 49.62 47.34 45.60 44.28 43.26 41.28 40.64 38.54 38.36 37.76 38.63 39.74 41.56 43.25 43.20 40.10 39.95 39.82 37.27 38.49 36.56
39.09 35.10 38.67 32.85 31.94 29.28 31.80 37.66 40.80 43.03 43.72 43.19 44.40 46.95 47.89 47.87 51.12 52.96 54.61 56.15 56.44 56.77 55.69 55.51 52.38 50.63 48.02 48.15 46.64 45.03 44.36 43.96 42.11 41.07 40.84 38.13 38.04 39.48 38.93 41.05 40.82 40.63 40.53 39.61 39.33 39.37 37.21 37.43 36.42
41.04 42.41 33.23 32.66 27.30 26.14 29.94 30.92 33.53 40.87 43.65 44.50 43.54 45.04 47.53 49.52 51.74 53.67 55.41 56.23 57.06 57.08 54.33 51.39 50.69 49.26 47.57 45.78 45.32 45.33 45.46 43.40 42.12 41.00 39.85 39.75 39.79 41.36 40.68 40.26 40.22 39.70 39.07 38.98 39.11 37.04 36.37 35.35 34.42
38.93 36.66 36.09 36.09 31.39 26.45 23.88 29.64 38.32 40.94 43.12 44.27 43.85 45.68 46.02 49.36 52.02 53.94 55.13 55.71 56.02 53.58 50.65 49.97 47.19 45.99 44.92 45.78 45.27 45.61 42.86 41.75 41.31 40.11 40.60 40.97 41.02 40.67 40.66 39.82 39.39 39.28 39.01 37.89 36.24 35.92 34.99 34.88 33.63
41.45 39.30 37.18 28.74 29.52 28.10 26.60 30.06 41.23 41.02 41.51 42.62 44.60 46.13 46.17 48.61 51.76 54.01 54.61 52.70 50.54 49.45 48.98 49.35 48.07 46.59 46.13 45.74 44.42 42.85 43.55 41.78 40.16 40.98 42.20 41.80 40.16 40.56 40.46 39.88 39.54 39.82 39.02 38.52 37.19 35.84 35.33 34.30 33.34

GFSSGP_sfc_wetblb_024.txt.gz
Wetbulb
55.30 51.55 49.40 46.04 38.36 33.39 29.98 34.42 37.67 39.70 51.18 57.30 59.48 57.54 56.43 57.66 54.10 47.95 65.68 67.57 68.50 68.94 69.71 69.44 70.23 71.01 70.76 70.66 70.32 69.99 69.61 69.25 68.52 68.40 68.42 68.54 68.69 68.81 68.83 68.27 68.28 68.47 68.55 66.97 66.76 67.81 69.01 69.03 69.02
50.65 50.23 47.21 39.94 32.44 27.92 30.17 36.29 38.17 44.92 53.02 55.78 54.35 57.73 57.78 57.05 62.53 63.13 63.75 67.90 68.78 69.25 68.81 68.81 70.60 70.67 70.44 70.14 69.95 69.46 69.05 68.71 68.52 68.18 68.15 68.74 68.40 68.44 68.74 68.13 67.92 68.38 68.40 66.79 66.31 66.25 66.92 67.04 67.99
50.90 51.85 43.31 35.56 29.03 29.55 30.80 37.57 48.14 51.15 53.54 52.65 51.41 57.01 58.43 58.87 63.23 64.04 67.70 68.56 69.10 68.74 68.23 69.05 70.26 70.26 70.25 69.81 69.27 69.07 68.70 68.34 68.20 68.01 67.88 68.25 68.20 67.97 68.27 68.03 67.90 68.68 68.27 66.60 66.49 65.48 65.78 66.08 66.29
49.11 46.29 38.59 33.23 30.61 34.32 36.48 37.93 43.86 50.33 52.80 53.44 51.38 53.52 61.54 64.66 64.26 65.73 67.89 68.23 68.22 68.31 67.89 68.51 69.26 69.66 69.74 69.56 69.33 68.84 68.39 67.48 67.61 67.93 68.25 68.54 68.13 67.41 68.37 67.74 67.76 68.01 67.53 66.22 66.06 64.82 65.33 65.99 65.27
43.56 39.16 32.72 28.68 30.77 35.75 41.50 50.35 51.52 50.40 50.93 52.73 53.58 55.06 57.46 63.53 65.68 66.53 66.06 66.57 65.80 66.11 66.63 67.79 67.94 68.68 69.25 69.64 69.32 68.60 67.73 67.48 67.85 68.26 68.27 68.44 68.49 68.12 68.13 67.70 67.78 67.31 66.84 66.90 66.08 66.20 65.14 65.48 64.92
40.89 36.54 29.96 28.14 32.51 38.57 50.11 50.12 51.86 51.38 51.85 52.55 55.01 55.00 58.10 64.79 64.52 64.43 63.47 62.48 63.06 62.15 63.48 66.13 67.55 67.60 67.86 68.53 68.11 67.66 67.55 67.82 68.27 68.20 68.39 68.46 68.06 67.69 67.70 67.67 67.26 66.77 66.32 66.28 66.60 66.21 64.96 64.64 64.95
39.02 34.70 30.46 31.20 35.83 40.08 48.87 51.77 51.40 50.92 50.15 50.97 55.20 54.13 59.29 62.25 63.69 62.60 62.20 62.48 62.28 62.42 62.65 62.84 63.34 64.02 65.94 66.57 66.63 66.47 67.13 67.57 67.74 67.79 67.56 67.41 67.10 66.89 67.29 66.91 66.78 66.36 65.93 65.59 65.83 66.53 65.08 63.97 63.93
40.43 36.91 31.92 32.73 36.69 41.33 50.14 50.70 51.57 50.27 49.56 55.65 56.01 53.44 55.65 61.59 62.95 61.56 60.71 60.36 60.27 61.07 61.53 61.16 61.15 61.61 62.44 63.91 65.32 65.54 66.00 66.39 66.91 66.81 66.39 65.83 66.22 66.47 66.03 65.78 65.84 65.44 65.15 65.31 65.03 65.34 63.99 62.87 62.54
39.77 34.19 30.45 33.45 39.87 43.20 50.07 48.25 50.72 55.86 55.18 56.32 58.49 57.89 60.77 61.86 61.88 59.45 58.27 59.03 59.56 59.42 59.55 60.22 60.30 60.82 60.88 64.07 64.63 65.23 66.24 65.91 65.62 65.35 65.20 62.99 62.34 62.16 60.64 63.71 64.25 64.24 63.68 64.34 63.69 62.63 62.13 61.27 60.59
38.99 32.86 35.12 39.27 41.22 45.42 47.81 48.38 50.93 52.44 53.63 54.68 57.77 60.92 61.59 61.31 59.94 58.81 56.65 56.63 57.85 57.97 58.55 59.11 59.12 58.88 59.19 64.66 63.07 61.07 62.37 61.96 61.77 61.88 61.01 61.01 60.80 60.07 61.33 62.92 63.90 63.52 63.17 61.84 60.89 59.37 57.89 53.68 49.61
37.14 36.34 39.29 41.48 45.62 49.80 47.97 49.11 51.99 51.43 49.77 53.95 56.11 58.07 60.26 59.84 59.32 59.29 57.17 56.67 56.95 58.16 58.39 59.42 58.81 59.21 59.47 63.04 61.32 59.91 59.68 59.90 60.30 60.38 59.67 59.67 60.53 59.52 57.40 56.57 55.14 53.46 55.29 51.85 51.77 50.94 50.35 49.84 49.15
38.22 42.10 42.30 43.51 47.94 49.28 49.13 51.35 50.36 50.01 51.86 57.14 58.09 58.58 59.11 58.38 58.43 58.69 57.15 57.46 56.65 56.14 57.10 58.26 59.34 61.78 62.12 61.16 59.63 59.02 58.38 58.59 58.79 58.96 59.60 59.20 57.64 56.18 54.14 52.96 51.96 50.87 50.36 49.33 49.28 48.81 48.80 48.52 48.58
39.67 42.10 43.27 43.89 49.72 49.47 51.47 48.73 48.32 52.15 56.03 58.06 58.39 58.09 57.70 57.82 58.22 58.87 58.58 58.16 58.22 57.54 57.89 59.18 60.43 61.64 61.65 60.06 58.24 57.62 57.34 58.63 58.51 59.09 60.21 58.55 56.02 53.63 51.66 50.60 50.21 49.57 49.27 48.34 47.85 47.78 47.41 47.48 47.35
43.41 43.84 43.14 46.38 49.21 50.45 48.67 47.95 49.87 54.05 56.46 55.22 56.14 55.60 56.82 55.45 56.23 57.54 58.20 56.28 58.18 59.14 59.11 59.01 59.46 61.63 61.16 58.60 56.93 56.99 58.28 60.10 60.40 59.88 58.89 56.99 54.19 51.69 50.27 49.48 49.13 48.64 48.38 47.61 47.24 47.00 46.57 45.98 45.93
44.74 41.64 44.02 45.72 48.01 49.05 49.72 44.72 47.19 54.72 55.45 54.51 55.20 55.79 55.88 55.55 56.44 56.91 57.94 57.30 57.65 58.07 57.94 58.11 59.27 61.24 60.16 58.36 57.22 57.94 60.29 60.66 59.51 58.90 57.76 55.74 53.24 51.71 49.40 49.11 48.73 48.14 47.58 47.40 47.39 47.06 46.70 45.95 44.38
41.16 41.56 39.83 44.33 47.34 48.53 45.85 40.90 48.46 55.09 54.37 54.13 54.87 55.62 54.66 55.18 55.96 56.18 57.15 57.90 58.80 58.85 59.25 59.51 61.31 59.94 58.74 57.52 57.22 58.43 59.07 58.51 57.91 57.49 56.71 54.12 52.74 50.84 49.45 48.45 48.18 47.78 47.64 47.24 46.64 46.09 45.33 43.61 41.83
37.14 34.14 37.73 41.10 46.52 47.04 45.27 42.72 47.83 53.27 54.55 53.06 54.68 54.88 53.97 54.62 55.92 56.73 57.17 58.06 59.38 60.29 59.70 58.29 59.46 58.20 57.60 56.48 57.25 57.65 57.07 56.33 55.43 54.36 53.33 52.60 51.63 50.36 48.46 48.20 47.71 47.54 46.52 45.85 46.24 44.90 44.49 41.98 41.31
33.14 34.38 34.46 37.89 41.80 44.00 43.43 43.64 46.96 51.07 52.80 52.72 52.49 54.89 54.56 54.55 55.47 56.86 57.19 59.19 59.94 59.31 58.19 58.80 58.26 57.18 56.52 55.91 54.20 53.22 52.27 51.64 51.67 51.19 51.27 51.73 50.69 49.65 48.60 47.66 46.85 46.13 44.79 44.23 42.83 41.43 41.55 41.60 40.71
38.97 36.26 35.56 38.85 42.91 43.22 41.90 43.54 45.38 48.66 48.94 49.10 50.31 52.83 54.85 55.73 57.35 56.97 57.70 59.23 58.81 57.52 57.15 57.75 56.58 55.37 56.39 53.92 51.57 51.25 50.33 50.31 48.89 49.02 49.26 50.47 49.30 48.35 46.85 45.62 44.80 44.11 43.52 42.80 42.64 40.92 39.78 39.14 38.49
40.19 37.13 35.92 39.58 41.32 39.85 38.93 41.21 44.51 46.45 49.07 49.27 50.46 51.97 53.84 55.45 55.42 56.55 57.29 56.92 57.79 56.85 57.40 57.14 56.53 55.86 56.10 55.42 50.43 50.46 48.98 47.57 47.37 47.53 47.67 48.33 47.26 46.43 46.11 43.19 42.14 42.49 40.90 40.18 41.14 40.53 39.65 38.37 37.31
39.12 37.74 37.29 38.29 38.61 39.04 39.62 38.22 43.27 46.32 47.26 48.61 49.97 52.03 53.33 54.06 54.70 56.17 57.23 56.17 57.21 56.65 57.23 57.65 56.56 56.35 55.81 53.59 49.32 47.57 47.91 47.15 46.18 45.35 45.09 44.41 44.32 42.64 41.25 40.79 40.17 39.56 39.37 38.57 39.37 40.10 39.74 37.44 37.50
37.97 42.40 40.01 39.01 35.60 31.66 36.25 29.45 36.88 43.20 44.87 46.26 48.58 49.18 51.44 52.34 54.71 55.79 56.90 55.59 55.74 56.50 57.49 57.99 56.98 56.55 55.71 52.21 49.83 49.50 48.44 46.55 45.79 45.16 41.39 39.88 41.48 41.07 41.11 40.97 40.80 40.51 40.30 40.42 41.42 41.77 39.88 38.70 36.06
40.20 42.44 39.84 39.33 35.99 34.90 34.02 31.94 34.38 39.36 42.73 46.10 47.30 49.04 50.71 52.05 53.02 53.92 56.30 56.97 56.43 56.33 56.82 57.92 56.68 56.43 55.88 52.97 51.50 49.59 47.57 46.61 44.96 41.29 38.72 39.57 39.86 40.60 41.07 40.90 41.64 41.20 40.96 41.03 40.83 40.36 38.61 38.22 36.33
43.42 41.45 39.45 37.32 35.20 28.57 33.35 32.55 32.79 36.19 43.84 47.85 48.64 48.05 50.25 50.23 50.89 53.35 55.86 56.09 55.75 55.23 56.00 57.01 56.04 56.14 55.74 53.84 51.77 50.02 49.08 45.98 43.16 39.88 38.93 38.59 38.50 39.31 40.08 40.71 41.17 41.36 41.61 42.13 41.53 40.80 38.26 37.72 37.28
40.98 37.13 30.10 28.74 27.23 26.89 36.21 33.33 35.84 40.90 42.45 45.25 46.84 48.62 49.06 51.10 49.57 50.04 53.44 54.67 54.77 54.64 56.13 57.24 56.68 55.23 55.83 54.74 52.42 50.67 49.06 47.76 45.85 41.78 41.55 39.34 38.42 38.17 38.27 39.30 40.84 41.71 42.95 42.00 41.89 40.35 38.38 37.24 36.53
38.00 37.00 29.24 25.27 24.14 28.88 35.40 31.05 36.76 42.36 43.22 44.72 45.13 45.25 46.03 48.20 50.44 50.74 52.87 54.98 55.34 55.29 56.39 57.25 56.99 56.61 56.07 56.26 54.19 51.62 50.26 48.82 47.10 43.87 42.07 40.64 39.91 39.12 38.77 40.86 42.77 43.26 43.80 42.62 41.92 39.99 38.89 38.56 37.78
37.77 33.92 37.24 31.46 30.33 28.42 30.27 35.49 39.54 40.61 42.73 43.31 43.01 43.93 43.55 46.12 47.93 50.27 51.25 54.19 55.14 55.70 56.75 57.37 57.52 57.08 54.86 54.43 51.29 49.54 49.70 47.81 44.72 45.32 43.38 40.51 40.17 40.77 41.90 41.48 41.54 42.92 42.77 41.60 41.12 40.53 38.95 37.85 36.54
39.78 41.03 32.96 31.23 26.83 25.23 28.45 29.06 31.98 38.51 41.24 43.27 43.43 43.67 45.14 46.73 47.76 49.64 51.12 53.36 54.79 55.77 56.71 56.57 57.10 55.93 52.44 51.36 49.54 48.33 47.44 46.95 45.47 43.41 41.10 41.07 41.51 41.75 41.20 41.03 40.65 39.89 39.58 39.69 40.28 39.05 38.04 36.29 35.70
38.04 35.67 34.75 34.83 30.33 26.11 23.07 28.66 37.56 39.27 41.04 40.89 41.87 44.33 44.59 46.72 48.96 50.53 52.03 53.45 54.58 55.28 55.37 54.90 53.95 51.71 47.98 47.63 47.94 47.70 46.10 45.77 44.22 42.94 41.69 41.40 41.80 41.60 40.85 40.44 39.98 39.40 39.06 38.92 37.95 36.59 35.03 34.20 33.65
39.40 37.84 36.07 29.12 29.12 27.56 25.71 28.48 39.52 39.78 40.36 40.10 41.85 43.62 44.00 45.55 49.46 51.26 52.19 52.73 53.19 54.43 52.38 50.93 48.94 47.07 48.97 47.46 46.65 46.72 44.40 43.35 41.70 41.33 41.15 40.83 41.33 41.20 40.62 40.13 39.71 39.69 39.05 38.69 37.19 35.47 35.34 34.30 33.03

GFSSGP_sfc_wetblb_027.txt.gz
Wetbulb
60.46 55.52 55.32 52.03 45.42 43.32 39.70 40.90 43.85 44.19 50.25 59.88 61.26 58.62 57.86 58.67 55.77 52.40 66.31 68.05 69.45 69.25 69.72 70.42 70.43 70.69 70.60 70.56 70.34 69.97 69.81 69.67 69.38 69.38 69.04 69.18 69.40 69.21 68.94 68.83 68.80 68.87 69.46 69.70 70.13 69.94 69.49 69.43 69.08
55.43 53.10 52.98 47.46 41.91 37.86 38.60 41.62 43.62 51.54 54.38 57.21 57.02 60.32 59.03 56.73 62.07 62.88 64.78 68.90 69.44 69.47 69.45 69.51 70.23 69.94 70.19 70.10 69.91 69.64 69.48 69.21 69.16 69.30 69.18 69.40 69.40 69.13 68.79 68.67 68.42 68.48 68.80 68.77 69.12 69.79 69.77 69.22 68.35
54.84 53.87 50.82 45.66 40.19 37.84 38.76 42.45 49.38 54.20 55.30 55.37 55.64 60.71 59.94 59.06 63.32 64.16 68.00 69.45 69.41 69.02 69.26 69.67 69.99 69.73 70.09 69.64 69.22 68.79 68.74 68.69 68.91 69.01 69.30 69.33 69.26 69.11 68.96 68.65 68.39 68.72 68.44 67.22 67.66 67.71 67.43 67.14 67.20
53.49 52.73 45.22 42.33 39.45 40.07 41.20 43.27 50.60 52.06 55.56 56.12 57.91 56.45 61.73 64.43 64.73 66.68 68.59 69.11 68.72 69.00 69.33 68.84 69.04 69.26 69.74 69.52 68.92 68.58 68.19 67.85 68.18 68.35 68.86 69.21 68.94 68.94 68.79 68.45 68.32 68.53 67.81 65.84 66.41 66.53 66.15 66.41 66.00
49.00 46.98 42.73 38.65 37.00 40.63 42.34 52.18 54.59 52.78 53.91 56.37 57.52 55.50 58.13 63.71 64.76 65.60 67.03 67.87 67.54 68.12 69.03 68.55 68.11 68.27 69.07 69.57 68.92 68.24 67.80 67.81 67.97 68.39 68.64 68.77 68.89 68.69 68.48 68.03 67.97 67.94 67.72 66.70 65.84 66.01 66.04 65.75 65.90
47.92 44.57 40.17 37.73 38.71 41.67 47.90 54.25 54.46 53.43 54.60 56.45 56.93 56.90 58.76 64.82 63.00 63.25 64.16 63.88 65.71 65.81 66.51 67.23 67.43 66.86 66.75 68.05 67.79 67.52 67.99 68.21 68.11 68.27 68.57 68.89 68.44 67.99 67.90 67.67 67.05 67.00 67.42 67.23 65.79 65.88 65.94 65.66 64.95
46.23 43.67 39.60 38.33 40.25 45.45 50.76 54.99 53.48 52.96 53.17 54.83 58.60 55.09 59.25 61.57 62.18 62.58 62.39 63.01 63.70 64.30 63.62 63.07 63.93 63.47 64.16 65.71 66.60 66.97 67.78 67.90 67.95 67.99 68.14 67.90 67.46 67.27 67.32 66.97 66.69 66.54 66.41 66.99 65.79 64.84 65.48 64.96 62.91
47.10 45.16 39.99 40.04 40.37 42.82 52.52 53.59 54.50 53.10 52.52 58.28 58.96 54.73 55.38 60.50 61.16 60.99 61.17 61.39 61.84 62.49 62.14 60.63 60.44 61.24 62.66 64.55 65.73 66.55 66.82 67.04 67.39 67.41 66.87 66.06 66.40 66.51 66.45 65.93 65.90 65.97 65.63 66.27 65.04 63.92 63.90 62.33 61.29
45.95 43.24 39.56 40.23 41.88 47.05 52.73 51.65 55.76 58.26 56.37 57.42 59.08 58.91 60.77 59.92 60.05 59.17 58.64 59.11 60.02 60.50 59.99 58.76 60.04 61.33 62.63 64.27 65.35 66.34 67.07 66.48 66.21 65.91 65.46 64.27 64.64 64.51 64.11 64.19 64.65 65.08 63.98 64.24 63.82 62.35 60.40 60.10 59.17
46.36 42.33 41.29 43.82 45.11 48.24 51.52 52.16 54.05 54.83 54.22 55.38 57.91 60.68 60.31 59.55 58.51 57.33 56.93 56.64 57.56 58.20 58.51 59.83 59.02 58.16 59.60 62.84 62.99 63.95 64.66 64.11 64.21 64.29 64.40 63.90 64.30 63.96 63.78 64.19 64.38 63.31 62.02 61.16 60.60 58.56 57.28 57.34 55.93
43.62 43.19 44.21 44.78 45.81 51.88 51.31 51.79 54.49 54.45 52.34 55.30 56.24 57.44 58.86 58.86 57.66 57.29 57.65 57.29 56.61 57.25 57.32 57.88 57.46 58.10 57.87 58.49 61.20 62.38 63.03 62.85 63.26 63.42 63.62 64.16 63.98 63.33 63.05 60.60 58.65 58.94 57.69 56.51 56.80 56.46 55.71 55.72 54.94
42.94 45.09 45.45 46.15 49.12 51.88 51.08 53.78 51.33 52.28 53.69 57.60 59.28 59.18 58.73 58.60 57.54 57.52 56.75 57.03 57.60 57.46 57.74 57.98 58.26 58.31 59.19 60.03 62.41 61.37 61.35 62.27 62.65 62.92 63.86 63.77 62.06 60.04 58.47 57.51 57.30 56.71 56.55 56.43 56.24 55.99 55.90 54.76 53.89
43.52 45.29 46.05 46.26 50.74 51.78 53.05 50.45 51.25 53.48 57.54 59.03 59.32 59.21 58.41 58.06 58.03 58.06 58.08 58.50 57.90 57.54 58.40 58.23 59.69 59.67 62.38 62.46 62.17 61.51 61.64 61.94 62.76 63.04 64.07 63.24 61.01 58.83 57.60 56.68 56.40 55.99 56.09 56.15 55.64 55.67 54.92 53.79 53.21
46.53 45.44 46.68 49.20 51.84 51.71 50.64 51.16 52.84 54.16 57.68 56.93 57.71 57.19 58.85 58.82 58.90 57.57 57.80 56.77 56.61 57.91 58.93 59.43 60.96 62.66 64.01 63.63 62.12 61.24 62.15 62.53 62.58 63.09 63.39 61.97 59.91 57.42 56.48 56.15 56.00 55.63 56.07 55.89 55.52 55.12 54.35 52.89 52.54
47.72 44.67 47.01 49.32 50.97 50.27 51.73 48.79 49.99 54.94 55.54 55.04 55.50 56.65 57.95 57.82 59.17 58.74 58.57 57.68 57.99 59.09 59.60 60.41 61.51 63.60 64.55 63.10 61.71 61.48 61.97 63.10 63.00 62.98 62.23 60.85 58.73 57.62 56.94 55.95 55.58 55.31 55.60 55.19 54.87 54.68 54.11 51.96 50.99
43.83 44.45 43.53 47.73 49.48 50.25 49.86 44.45 51.74 54.86 55.01 54.16 55.52 56.44 57.05 56.66 57.36 59.72 60.12 59.29 60.09 59.94 60.09 60.94 61.51 62.83 64.40 63.04 61.77 61.88 63.08 64.12 63.89 63.03 61.79 59.46 57.97 57.14 56.73 55.99 55.39 55.23 55.25 55.17 55.00 54.24 52.43 51.38 50.62
42.51 40.01 42.34 44.47 50.22 49.59 48.45 45.95 51.83 54.90 54.77 53.45 54.86 55.74 56.17 56.22 57.64 58.75 60.36 60.20 60.60 61.39 61.01 61.00 61.99 62.70 63.76 63.09 61.80 62.47 63.64 63.68 63.00 62.19 60.49 58.69 57.04 56.37 56.86 56.08 54.97 55.37 54.42 54.34 53.65 53.04 53.08 50.84 49.58
39.17 39.86 41.77 43.50 47.10 48.55 46.92 47.48 51.07 54.23 54.66 54.11 54.88 55.62 55.93 55.76 56.94 58.87 59.67 60.23 60.63 61.52 62.12 61.99 62.18 62.83 63.31 62.24 61.20 61.32 61.78 61.19 61.34 60.97 59.84 58.13 56.80 55.91 56.19 55.07 54.44 54.11 53.11 52.47 51.89 51.35 50.86 50.95 49.81
43.15 41.01 40.59 43.80 45.71 46.97 46.26 47.67 49.61 53.16 53.99 54.04 54.50 55.84 55.62 55.49 58.01 58.96 59.80 60.74 60.88 61.89 61.81 61.75 61.78 62.41 61.92 59.96 59.63 59.92 60.35 59.17 59.21 59.26 58.72 57.59 56.39 55.28 55.33 53.91 53.16 53.04 52.60 51.74 51.15 50.17 49.34 48.19 48.88
42.97 41.04 41.34 43.53 43.72 45.62 43.86 45.18 48.85 51.03 52.79 54.12 54.80 55.29 56.83 56.97 57.72 58.81 59.22 60.09 60.66 61.55 61.97 62.31 62.09 61.86 61.46 61.59 60.44 60.27 59.39 57.13 57.57 56.27 56.49 56.50 54.96 54.38 53.70 53.10 52.17 52.13 50.92 50.66 50.54 49.94 48.44 47.50 47.70
42.72 41.18 41.28 41.34 42.28 43.74 44.10 42.69 46.86 49.50 51.85 52.85 53.76 56.01 56.99 57.86 57.97 58.48 58.62 59.44 60.66 60.99 61.75 61.87 62.17 61.74 61.63 61.38 57.27 54.97 55.28 54.22 53.72 53.45 53.85 53.63 53.63 53.08 51.84 51.33 50.86 49.62 48.99 47.97 49.03 49.35 48.63 45.55 45.31
40.51 44.90 42.99 41.67 40.19 37.98 42.24 35.98 41.36 47.70 48.64 49.94 52.38 53.46 55.39 56.88 58.34 59.44 59.00 59.31 59.92 60.88 62.19 62.26 61.54 60.91 60.68 58.99 58.08 56.71 57.50 55.24 55.12 53.70 52.87 51.79 51.31 49.91 49.03 48.67 48.77 48.36 48.23 48.15 48.54 48.56 48.35 47.36 44.56
43.04 44.95 43.71 42.78 40.00 39.73 39.27 38.00 40.83 44.08 46.68 49.31 51.63 52.90 54.78 56.55 57.76 58.66 59.56 60.23 60.77 61.30 61.36 61.99 61.52 60.77 60.50 58.39 58.56 57.75 56.81 56.94 54.30 50.46 47.67 47.55 48.48 48.44 47.83 48.42 48.52 48.42 48.68 48.88 48.17 46.49 47.16 47.03 43.82
45.63 43.79 42.63 40.87 40.06 35.21 37.96 38.22 40.02 42.19 47.05 50.31 53.00 53.10 53.81 55.25 56.30 58.10 60.08 61.10 61.14 61.33 61.70 61.77 61.21 60.57 60.53 58.36 57.25 57.02 55.28 53.22 51.34 49.61 47.91 47.08 46.92 47.11 47.41 47.50 48.42 48.74 48.48 46.78 45.72 46.43 45.44 44.26 45.79
44.49 42.26 36.23 33.98 33.46 32.79 39.00 37.95 42.07 46.07 46.10 48.28 50.58 52.84 54.34 55.42 56.40 56.37 57.32 58.75 60.12 59.62 60.30 60.90 60.92 60.11 59.57 58.31 57.00 56.17 54.50 52.48 52.29 49.13 46.07 45.62 45.78 46.09 46.47 47.92 47.71 47.86 48.23 47.93 47.14 45.41 45.40 46.16 45.16
42.41 42.61 36.28 28.96 29.90 33.52 38.46 35.99 41.45 46.58 47.68 48.14 48.54 49.36 51.61 53.73 55.29 55.78 56.83 58.85 59.47 59.46 59.84 60.24 60.40 60.26 59.38 58.34 57.62 55.52 53.90 53.13 53.46 51.63 48.85 45.71 46.58 46.51 46.82 47.45 47.66 47.11 46.44 47.73 47.59 45.66 46.53 46.20 45.32
41.14 39.49 42.18 35.71 34.16 33.74 36.32 39.52 44.02 44.82 46.75 48.31 49.05 49.07 49.28 49.40 52.86 54.66 56.27 57.70 59.14 59.22 59.72 60.29 60.21 60.34 59.39 59.72 59.46 57.06 55.87 54.43 53.33 51.32 49.70 48.85 46.62 46.03 45.68 46.54 46.35 45.24 47.11 45.85 46.92 46.53 45.95 45.64 45.55
43.59 44.08 38.05 37.06 30.71 28.73 33.83 35.05 38.45 43.29 44.43 46.12 47.91 49.82 50.62 51.51 50.83 52.26 54.51 55.76 58.17 59.21 59.71 59.92 60.38 60.36 60.38 60.15 60.13 58.04 55.73 54.08 53.49 50.56 48.09 47.55 46.29 45.40 45.39 45.62 43.60 45.31 45.75 46.01 45.15 44.68 45.78 44.83 45.17
41.24 40.10 38.32 39.67 36.75 32.75 30.51 34.99 43.25 44.00 45.39 46.97 47.18 47.32 49.85 50.78 53.48 53.53 54.18 55.53 57.21 58.68 59.21 59.52 59.81 60.36 60.30 59.23 57.76 56.26 54.37 53.71 52.14 50.11 48.86 46.06 43.77 43.67 43.74 42.05 44.52 43.64 42.89 44.21 44.22 44.17 43.80 43.60 43.60
43.88 41.87 40.50 36.65 33.88 33.57 33.20 34.86 44.24 46.21 45.32 45.84 46.70 46.65 49.25 51.15 52.32 54.97 55.42 55.71 56.54 57.41 58.11 58.69 59.25 59.32 57.21 54.44 55.80 55.27 53.88 52.35 50.37 49.31 46.72 44.68 43.06 43.82 42.65 43.29 42.56 43.29 42.45 43.23 42.99 42.51 41.92 41.65 41.25

GFSSGP_sfc_wetblb_033.txt.gz
Wetbulb
63.89 63.37 60.84 56.50 47.96 47.58 44.50 46.40 49.39 49.06 50.29 58.59 61.79 59.11 54.16 58.42 56.69 53.74 69.28 70.89 70.45 69.60 71.34 71.71 71.33 71.79 71.78 71.44 70.94 70.42 70.17 70.40 70.34 70.03 70.05 70.20 70.25 70.35 70.35 70.54 70.69 70.78 71.15 70.35 68.61 67.81 67.46 67.32 67.35
61.80 57.84 56.62 53.02 45.24 42.58 44.40 48.50 46.54 49.92 56.20 60.91 61.44 62.84 59.95 58.43 63.98 64.56 66.72 69.65 68.65 69.13 70.71 71.84 70.98 71.07 70.94 70.59 70.17 69.72 69.93 70.03 69.90 70.05 70.32 70.18 70.30 70.20 70.44 71.02 71.01 70.85 71.21 69.94 68.35 67.82 67.44 67.21 67.19
58.87 57.59 52.81 49.98 46.46 42.71 42.95 48.69 49.97 52.19 58.69 59.57 59.25 62.70 57.92 56.04 59.61 64.11 69.51 71.27 67.44 68.38 69.98 70.88 70.06 70.02 70.18 69.77 69.59 69.40 69.60 69.36 69.53 69.98 70.27 70.32 70.10 69.96 70.10 70.63 71.01 71.05 71.17 69.35 67.99 67.58 67.16 66.65 67.18
57.59 56.21 53.35 45.19 43.82 46.62 47.26 48.70 50.22 53.25 56.28 59.02 60.35 58.40 60.12 59.05 58.81 62.33 68.11 70.85 68.05 66.63 68.64 69.27 69.11 69.43 69.53 69.70 69.39 69.34 68.93 68.90 69.20 69.38 70.03 70.18 69.98 69.98 69.39 69.34 70.10 70.98 70.63 67.79 67.28 66.60 65.99 66.54 66.49
56.05 53.49 46.79 45.80 45.10 46.93 48.67 49.26 53.17 54.07 55.32 57.22 59.37 57.94 60.03 62.39 63.90 65.40 66.13 69.71 67.61 65.85 70.03 69.37 68.51 68.94 69.33 69.33 69.28 69.01 68.61 68.89 69.13 69.26 69.31 69.51 69.39 69.53 68.73 68.27 68.81 69.25 68.93 67.61 66.43 65.78 65.73 65.81 65.21
52.22 51.86 45.22 43.41 44.90 46.92 50.33 54.04 55.72 55.99 57.22 58.49 58.95 59.65 60.32 64.19 64.81 65.83 68.62 68.06 67.66 68.75 68.91 68.48 69.14 68.94 68.50 68.55 68.44 68.22 68.52 68.73 68.73 68.96 69.36 69.62 69.07 68.71 68.74 67.96 68.01 68.28 67.64 67.24 66.80 66.18 65.42 64.41 63.41
50.93 49.09 45.80 45.58 46.77 48.56 53.40 58.18 56.48 56.86 57.09 58.23 61.87 56.34 60.55 61.43 62.27 63.99 65.26 66.36 65.94 66.29 65.62 66.27 66.98 67.68 67.21 67.01 67.23 67.46 68.03 68.26 68.51 68.51 68.43 67.68 67.38 67.34 67.56 67.33 67.11 67.31 67.00 66.77 66.01 65.24 64.50 62.79 62.19
52.31 50.34 46.73 47.52 46.10 46.25 54.07 56.21 58.10 57.25 57.87 63.14 63.71 58.15 58.26 60.29 62.17 61.88 62.08 62.32 63.76 64.13 63.40 62.96 63.62 65.13 67.27 66.88 66.81 67.07 67.49 67.65 67.67 67.36 66.60 66.28 66.27 66.65 66.83 66.69 66.32 66.45 66.50 66.24 64.83 63.92 62.85 61.37 61.09
53.70 47.59 46.48 46.41 46.60 48.60 53.31 53.89 59.55 61.28 58.55 60.71 62.92 61.88 61.12 61.34 61.79 60.80 59.02 59.29 59.66 61.23 61.42 61.29 61.35 62.84 64.25 65.48 66.90 67.46 67.74 66.80 66.03 65.69 64.73 63.91 63.62 63.80 64.38 65.89 66.05 65.41 64.91 64.57 63.71 62.63 61.79 60.99 59.84
50.50 47.88 46.88 50.04 50.42 49.84 53.40 54.76 56.38 57.23 58.42 58.67 56.97 59.05 60.20 60.58 61.34 60.38 57.76 56.26 56.44 57.28 58.68 60.47 61.03 59.48 58.56 59.30 60.11 61.24 62.23 63.88 64.45 63.52 64.73 63.76 64.95 65.41 63.58 64.35 64.34 63.81 63.02 62.54 62.11 61.55 61.08 60.97 59.59
51.31 47.91 50.73 51.21 51.58 52.89 51.98 54.02 56.52 55.67 50.81 50.94 56.67 56.72 58.69 60.04 60.05 58.76 58.12 57.14 56.46 57.57 58.07 58.14 57.42 56.92 56.20 57.37 58.10 61.52 62.83 63.82 64.55 65.60 65.34 65.67 65.01 64.17 64.34 63.12 62.73 61.57 61.28 58.82 58.77 59.18 61.32 61.15 59.89
48.54 51.00 51.27 51.96 52.29 53.81 54.24 54.31 50.84 57.64 55.60 57.61 59.19 58.88 59.23 59.15 59.49 58.23 56.75 56.55 56.45 57.28 57.62 57.76 58.81 58.15 57.47 58.55 60.27 61.28 61.83 63.09 63.43 63.50 64.65 65.13 64.63 65.31 65.02 63.90 63.23 63.04 61.96 61.50 61.90 61.01 60.80 59.44 58.79
49.77 50.94 51.68 52.86 52.50 55.53 56.54 55.78 55.77 57.23 59.75 61.26 59.49 59.02 59.36 59.41 59.41 58.75 56.79 56.24 55.98 55.48 55.08 55.83 56.15 56.37 57.40 58.06 58.78 60.30 60.65 61.30 61.88 63.40 64.35 64.04 64.46 65.19 64.30 64.53 63.80 63.04 62.82 61.89 61.43 60.68 59.42 59.05 58.40
52.32 51.80 52.03 52.19 53.26 55.47 54.04 55.22 56.67 58.27 61.36 58.97 59.82 58.61 57.61 58.07 58.37 59.06 57.89 55.34 55.06 55.06 54.83 54.59 54.47 55.77 56.13 57.34 57.22 59.46 62.28 61.95 62.85 63.62 63.95 64.30 64.07 65.36 63.74 63.24 62.74 62.77 62.64 62.41 61.33 59.99 59.10 58.50 57.74
52.33 49.74 51.40 52.13 53.80 53.30 54.60 48.92 53.75 59.56 60.44 58.03 57.91 58.88 57.37 58.01 58.59 59.61 59.89 56.94 55.64 54.96 55.79 54.71 55.14 56.21 58.27 58.42 58.08 58.30 60.50 62.37 62.69 63.02 66.71 65.38 64.37 65.16 64.50 63.52 62.69 62.46 62.84 62.03 60.75 59.76 59.13 57.80 56.55
49.76 50.49 45.81 52.44 53.60 54.58 52.20 43.56 56.72 60.03 58.62 57.16 58.16 57.83 58.96 59.68 60.06 59.71 60.57 60.04 59.00 56.56 55.75 55.99 56.93 59.59 59.60 60.53 61.67 62.54 62.40 62.86 62.47 64.43 66.25 66.35 65.45 65.16 64.59 63.22 62.84 62.72 62.06 61.01 59.54 58.89 57.71 56.68 55.87
48.78 44.06 45.77 49.08 52.59 53.80 52.12 43.13 56.57 59.48 57.79 56.21 57.32 58.18 58.77 59.69 60.64 59.89 60.08 59.70 59.74 58.51 58.46 59.28 61.41 60.61 61.91 63.92 63.61 62.87 63.85 63.13 63.69 66.32 66.77 66.21 65.46 64.94 64.43 63.67 63.06 62.39 61.34 60.25 59.39 58.59 57.75 55.36 54.61
44.04 44.72 46.93 46.29 50.22 51.99 50.85 50.80 56.18 58.06 57.57 56.86 57.03 57.06 57.13 57.96 58.79 60.44 59.57 61.18 61.60 61.33 61.34 61.91 62.55 62.68 62.93 64.20 64.29 62.79 61.96 62.94 64.84 66.20 66.03 66.61 65.57 64.65 64.38 63.59 62.52 61.77 60.50 59.59 58.91 58.03 55.81 55.59 55.04
48.47 46.59 46.07 48.44 51.76 49.89 50.06 49.74 53.42 57.05 57.37 56.38 56.86 56.55 56.82 57.25 59.42 60.77 61.80 61.41 61.92 62.03 61.65 61.81 61.93 62.98 63.74 63.30 62.37 60.89 60.12 62.45 64.73 66.15 66.37 66.25 65.31 64.35 63.92 63.03 62.05 61.38 60.07 59.28 58.82 56.38 54.74 53.12 53.76
47.55 45.91 45.95 48.40 49.62 48.77 48.73 49.30 51.62 55.80 56.68 57.50 57.13 57.08 57.80 57.56 58.40 59.86 61.24 62.46 62.10 62.13 62.74 62.69 62.43 63.52 63.95 63.46 63.28 61.78 61.90 62.76 64.90 66.81 66.26 66.25 65.52 64.12 63.40 62.96 61.30 60.68 59.48 58.94 57.61 55.84 53.83 53.55 53.99
46.67 45.89 45.46 45.44 48.47 49.51 48.37 47.32 49.13 53.33 56.63 58.08 58.34 58.67 58.44 58.34 58.30 59.24 60.01 61.59 62.61 62.52 62.76 63.24 63.60 64.06 64.73 64.66 64.08 62.01 62.22 63.82 63.58 64.47 64.67 65.30 65.03 63.91 63.08 62.67 61.72 60.86 59.86 57.68 56.85 55.44 53.76 51.63 52.93
43.90 48.74 47.63 46.09 45.35 41.05 48.69 40.57 46.76 50.30 52.69 55.75 57.45 58.00 58.06 58.42 59.79 60.00 60.24 60.55 61.78 62.68 64.18 64.16 64.20 64.07 64.66 65.10 63.57 61.62 61.16 60.71 63.17 63.90 64.50 63.93 64.45 63.64 62.77 62.25 61.62 60.32 59.09 57.91 56.25 54.87 54.03 53.04 51.68
46.22 50.09 47.98 47.86 46.13 45.64 44.57 41.58 44.31 48.49 48.77 52.31 55.83 57.78 58.57 59.14 59.54 59.92 60.83 61.39 62.17 63.34 63.39 64.36 64.46 64.63 65.05 65.09 64.46 63.22 62.42 63.05 63.66 64.05 63.94 63.54 64.22 63.15 62.35 61.70 60.86 59.51 57.94 56.87 56.12 54.07 53.16 53.43 51.02
50.36 48.22 48.02 48.01 46.03 40.01 43.24 43.07 41.98 45.80 48.31 50.60 54.11 56.77 58.48 58.90 59.83 60.47 61.80 63.01 63.28 64.06 64.79 65.05 64.19 64.00 64.84 65.24 65.05 65.46 63.91 63.51 63.20 64.23 62.68 62.65 61.78 60.57 60.82 59.60 58.50 56.90 54.16 53.90 53.85 53.40 51.74 50.46 51.39
48.99 46.06 39.54 37.80 38.80 37.94 45.29 42.70 44.52 48.20 50.36 51.00 51.42 54.43 57.42 59.61 59.73 59.91 60.40 61.48 62.80 64.15 64.97 64.82 64.35 63.77 64.72 65.14 65.12 65.40 64.53 64.58 63.99 63.26 62.22 60.61 58.97 55.77 54.91 54.45 53.85 52.22 51.29 49.72 49.98 49.91 49.39 49.44 49.26
46.99 46.07 40.40 31.20 34.14 39.18 44.82 39.67 44.19 50.67 52.32 52.38 52.87 53.73 55.19 58.21 59.98 60.32 60.73 61.35 62.40 63.53 65.04 65.29 64.77 64.15 64.77 65.60 65.32 66.00 64.31 63.92 64.76 63.59 62.36 60.02 55.86 52.14 53.66 51.86 52.97 51.01 48.88 49.84 50.33 49.29 48.13 48.71 49.70
46.90 44.47 47.86 42.26 43.52 39.89 42.65 45.03 48.32 50.95 49.93 51.10 52.46 53.81 55.08 56.16 58.23 60.01 61.02 62.18 62.88 63.68 65.00 66.50 65.39 64.95 65.36 65.69 64.52 65.44 64.95 64.30 64.75 64.06 62.88 58.52 54.46 54.31 53.58 53.71 51.96 49.43 48.95 48.31 47.70 47.46 48.53 47.45 50.56
48.39 50.32 42.97 43.90 34.87 33.40 39.79 41.71 42.83 46.29 47.75 49.62 49.93 52.34 53.88 56.17 57.52 58.21 59.90 61.80 63.14 64.19 65.30 67.55 66.43 65.83 65.76 65.97 65.09 65.25 65.24 64.66 64.11 62.97 59.30 56.26 55.29 54.42 53.45 52.39 50.32 49.57 49.17 47.31 47.59 47.57 47.51 48.28 47.82
46.33 45.58 46.41 45.57 43.85 36.84 35.49 40.39 48.34 47.80 49.01 49.60 51.11 51.76 53.00 55.05 57.25 58.90 59.07 60.37 62.09 63.94 64.87 65.69 66.25 66.16 66.21 66.04 66.07 65.80 64.46 63.48 63.04 61.00 58.36 56.83 55.33 54.30 53.44 51.97 51.04 48.69 46.95 45.61 45.89 47.67 47.73 47.20 47.45
48.60 46.95 47.01 42.04 40.23 43.04 42.32 41.86 49.91 50.25 51.26 51.45 51.21 52.30 53.93 55.74 56.84 59.29 60.35 60.50 60.55 61.84 63.14 64.66 65.51 65.40 66.06 65.94 65.49 64.47 62.74 60.23 59.20 58.49 57.86 57.18 56.46 56.27 53.90 52.57 49.12 46.79 45.35 46.01 46.91 45.71 45.58 46.33 44.84

GFSSGP_sfc_wetblb_036.txt.gz
Wetbulb
62.03 62.12 61.31 57.37 46.26 46.07 42.35 44.27 48.83 47.37 49.31 56.29 58.63 56.32 53.53 58.40 55.89 51.37 67.07 62.48 65.84 69.24 71.76 71.68 71.43 71.79 71.88 71.52 70.95 70.41 70.47 70.69 70.35 70.23 70.23 70.55 70.62 70.77 70.72 70.72 70.70 70.82 69.77 68.31 67.91 67.31 66.81 66.19 66.16
60.79 60.34 56.28 51.08 43.93 40.57 42.05 47.41 46.99 48.95 55.77 57.43 56.52 55.15 52.54 55.06 60.63 64.31 66.35 69.11 69.61 70.01 71.47 71.78 71.12 71.26 71.11 70.61 70.22 70.12 70.37 70.42 70.25 70.23 70.42 70.57 70.69 71.16 70.96 70.65 70.26 70.28 69.73 67.93 67.67 67.09 66.45 65.89 66.63
58.87 57.98 50.86 47.71 45.07 41.37 42.42 47.56 48.96 50.96 52.93 56.18 55.81 61.90 59.42 55.75 59.89 62.42 63.76 67.60 68.58 69.66 71.28 71.22 70.47 70.47 70.47 70.01 69.54 69.68 69.72 69.56 69.80 70.00 70.59 70.50 71.11 71.75 71.35 70.47 70.43 70.40 69.73 67.95 67.23 66.67 65.88 65.86 66.33
57.94 54.89 52.11 44.87 41.82 45.43 46.43 48.22 48.85 50.38 53.69 55.54 57.53 54.69 59.39 60.28 59.91 62.56 62.78 63.11 65.14 67.19 70.36 69.39 69.40 69.62 69.87 69.53 69.76 69.43 69.19 69.21 69.35 69.65 70.05 70.25 70.94 71.48 71.23 70.47 70.50 70.27 69.20 67.28 66.36 65.76 65.50 66.22 65.18
55.90 51.81 46.00 44.10 44.79 46.92 48.41 49.48 49.84 50.89 53.08 54.48 57.05 54.84 54.83 64.07 65.51 66.03 61.82 63.09 61.56 65.33 69.42 69.02 68.57 68.97 69.40 69.69 69.54 69.03 69.23 69.09 69.31 69.40 69.36 69.54 69.74 70.07 70.16 70.04 69.84 68.72 68.38 66.74 65.88 65.43 65.21 65.34 64.63
51.25 51.67 43.51 42.27 45.10 50.17 51.73 52.84 52.49 53.51 55.03 55.34 55.32 53.71 57.88 62.91 62.93 64.24 67.16 65.50 64.84 65.04 68.22 68.12 69.05 68.71 68.57 68.61 68.57 68.53 68.69 68.94 69.03 69.00 69.24 69.48 68.89 68.54 69.00 69.03 68.26 67.89 67.42 67.11 66.33 65.93 65.08 64.59 63.69
49.48 47.91 44.61 45.13 46.59 47.61 48.71 50.72 51.79 55.48 54.69 51.96 53.78 49.50 58.56 60.31 62.09 63.01 64.87 65.96 62.74 64.26 66.02 66.21 66.97 67.84 67.51 67.23 67.22 67.55 67.91 68.32 68.61 68.66 68.29 68.09 67.44 67.33 67.94 68.32 67.87 67.42 66.76 66.29 65.63 64.99 64.28 63.23 62.24
51.26 48.94 45.27 47.33 45.79 46.66 51.63 50.95 54.40 55.88 54.69 57.67 55.33 50.87 55.97 59.45 61.43 61.53 62.27 63.58 63.65 64.52 64.84 64.69 65.43 66.03 66.68 66.82 66.79 67.27 67.43 67.50 66.97 67.01 66.54 66.29 66.45 66.65 66.69 66.74 66.89 66.90 66.08 65.34 64.52 63.74 63.03 61.74 60.97
53.17 45.62 44.09 46.24 46.24 47.52 51.75 52.05 52.37 54.98 52.00 52.77 58.20 58.44 59.35 61.33 61.45 59.74 59.18 59.23 60.54 62.15 62.68 63.01 64.04 65.12 65.41 65.03 66.37 66.55 67.22 66.39 65.74 65.40 64.96 62.92 62.71 62.17 64.08 65.20 65.97 65.97 64.65 64.16 63.69 62.90 61.88 60.85 59.77
49.54 45.47 46.76 49.96 50.28 49.06 51.34 52.32 55.16 53.37 52.15 51.06 52.90 58.61 60.97 61.70 59.70 58.07 57.15 56.59 57.65 59.24 60.51 60.93 60.01 59.19 62.00 63.44 63.96 64.92 64.59 63.53 62.53 61.85 62.39 62.42 62.93 62.61 63.91 64.15 64.54 64.21 63.75 63.34 62.55 62.00 61.34 60.00 53.88
49.90 46.05 50.26 50.32 51.35 51.84 51.97 52.85 55.53 53.97 47.18 49.96 51.39 56.74 59.18 59.28 58.92 58.19 57.18 56.39 56.31 57.61 58.91 57.30 57.00 57.50 57.40 57.30 58.33 59.45 61.32 62.70 62.64 63.30 63.10 63.37 62.48 62.37 62.51 61.39 60.28 59.75 60.71 56.87 57.62 58.38 57.20 57.59 56.54
47.29 50.37 50.79 51.16 52.36 51.92 53.34 55.37 52.54 55.92 51.52 55.72 58.00 58.60 59.36 58.88 57.41 56.93 56.65 56.29 56.57 56.71 55.46 56.61 56.34 56.40 55.89 55.56 55.61 56.89 59.87 61.10 62.96 62.79 63.79 63.83 62.79 62.27 61.35 60.56 60.44 58.51 57.87 55.57 56.17 58.01 57.16 56.37 56.16
48.38 49.75 51.58 52.02 52.25 53.36 54.85 53.70 55.99 56.40 58.72 59.41 59.13 59.79 58.90 57.97 56.87 56.65 56.52 56.35 55.42 55.53 56.13 56.42 56.65 56.97 56.95 56.66 56.97 57.97 60.18 60.36 60.87 62.86 63.86 63.78 62.31 62.73 62.06 61.45 60.77 59.18 59.83 59.48 58.91 57.46 56.41 55.45 55.09
51.71 51.49 50.98 51.57 51.67 53.75 52.94 53.60 53.47 57.62 59.56 58.60 58.65 57.93 57.66 57.39 56.48 55.60 54.84 54.53 53.15 53.32 53.47 55.28 56.19 57.21 57.82 58.20 58.65 59.26 59.63 59.79 60.92 62.31 62.83 63.24 63.20 62.41 62.26 62.14 61.47 60.72 60.18 59.91 58.61 57.07 55.52 54.99 54.08
51.73 48.38 49.79 50.98 51.62 52.37 53.17 48.25 48.05 57.61 58.31 56.86 57.30 56.54 56.65 57.65 57.76 56.34 55.41 54.37 53.67 52.99 53.42 54.53 55.26 56.01 56.62 56.84 57.66 58.67 58.75 57.63 59.04 61.52 62.53 62.88 61.73 61.95 62.30 60.76 60.87 60.57 60.23 59.44 57.57 55.91 55.17 53.71 53.10
48.48 48.26 44.51 50.68 52.26 53.08 50.57 42.35 50.64 53.81 57.12 55.85 54.60 55.36 54.82 56.20 58.01 57.40 56.88 55.27 54.90 53.62 53.03 54.23 56.17 55.13 55.46 55.42 55.50 56.89 58.43 60.01 60.42 61.05 63.27 63.50 63.12 63.33 62.89 61.62 60.70 60.42 59.36 58.29 56.44 55.25 53.98 53.24 52.09
47.06 42.30 44.85 47.29 52.58 52.72 50.46 44.60 50.51 54.56 57.04 55.14 54.92 55.98 57.24 57.39 57.27 58.89 57.64 56.29 56.68 55.63 54.33 54.44 55.52 54.65 56.63 55.75 56.22 57.94 60.07 61.98 62.05 61.53 64.42 64.47 64.39 63.73 62.54 62.13 61.15 60.32 58.79 58.03 56.70 55.54 54.36 51.65 50.48
42.80 43.76 45.61 46.35 50.30 51.21 48.68 47.10 50.44 53.31 55.74 54.98 55.30 56.43 56.64 57.24 56.79 58.26 58.21 58.80 57.37 56.24 55.36 55.35 55.87 57.18 57.92 57.66 56.08 58.63 59.53 60.89 60.86 61.30 63.60 63.74 64.04 63.60 62.63 62.57 61.35 59.28 58.24 57.05 55.48 54.50 52.26 51.95 50.97
46.57 45.92 45.44 48.09 50.97 49.34 49.18 48.74 51.08 52.96 55.43 54.90 54.76 54.94 55.31 56.39 58.49 58.80 58.89 59.26 57.62 57.16 56.78 57.39 57.98 58.52 59.38 58.92 58.50 60.06 57.53 59.31 60.05 63.21 64.33 64.22 64.07 63.12 62.37 61.44 60.01 58.67 57.80 56.32 56.41 53.39 50.87 48.84 49.19
46.46 44.49 44.94 48.14 50.60 48.99 47.12 49.07 50.63 51.79 55.07 54.55 55.31 54.98 54.88 55.98 57.48 58.13 58.41 59.42 58.72 57.82 58.42 59.63 60.32 60.51 60.31 60.86 61.52 61.21 59.41 59.41 60.59 63.59 64.01 63.46 63.05 62.56 62.25 61.06 59.32 58.87 57.47 56.82 55.10 52.84 50.17 50.09 49.85
45.51 44.33 44.71 45.22 48.00 49.44 47.13 44.99 48.73 52.91 55.33 55.86 56.20 57.19 57.09 55.61 56.36 57.80 58.47 58.68 59.63 58.98 59.35 60.36 61.10 61.26 61.54 62.05 62.17 62.03 60.44 60.08 59.75 62.78 63.24 63.30 63.79 63.02 61.40 61.11 59.78 58.79 57.98 55.85 54.62 52.77 51.04 48.03 48.84
42.78 47.39 47.22 46.55 45.02 40.31 47.97 38.71 46.16 50.63 51.57 54.28 55.40 56.32 56.45 57.03 57.20 58.22 58.50 59.46 59.09 60.28 60.88 61.12 61.00 60.95 61.76 62.39 60.87 60.33 57.80 56.46 59.43 62.01 62.89 63.07 63.60 62.91 61.80 60.99 60.34 59.40 57.60 56.06 54.21 53.61 51.06 49.16 47.51
45.23 49.26 47.68 47.19 44.67 44.51 44.43 41.36 44.52 48.76 47.70 51.27 54.98 56.31 57.21 57.64 57.97 57.41 58.33 59.76 61.30 61.78 61.56 61.77 62.15 62.02 62.48 62.73 62.41 61.10 58.54 58.98 60.06 61.80 62.03 62.23 62.44 62.47 61.37 60.94 59.57 58.15 56.69 54.61 54.09 52.47 50.58 50.06 48.39
49.78 48.01 47.70 47.16 44.71 38.55 43.39 42.37 42.23 45.17 47.44 50.18 53.91 56.03 57.19 57.69 58.14 58.93 59.52 60.11 60.85 61.65 62.20 62.63 62.12 62.30 62.78 62.83 62.52 61.98 59.42 59.92 60.16 60.52 60.96 61.24 61.23 61.87 60.85 59.30 58.04 53.87 52.72 51.72 50.98 51.35 49.97 50.00 49.21
48.12 45.19 38.11 36.25 36.54 36.77 45.03 42.44 44.21 48.37 49.81 50.24 52.94 53.02 54.30 57.95 58.21 58.25 58.98 59.28 59.88 60.44 61.29 62.26 62.18 61.95 62.86 62.99 63.22 62.29 62.17 61.14 60.63 61.23 61.58 60.27 59.88 58.26 56.57 53.91 52.56 52.50 52.30 51.47 50.85 49.89 48.99 48.69 47.44
46.05 44.86 39.32 32.08 33.87 37.52 43.43 39.64 43.56 50.40 51.94 52.43 52.98 54.97 54.89 57.56 58.39 58.82 58.73 60.10 60.58 60.78 61.33 61.68 61.83 61.61 62.41 62.84 63.13 63.35 62.77 62.52 61.99 61.58 60.93 60.27 59.09 56.18 54.06 53.22 52.44 52.11 51.03 49.52 49.18 48.82 47.80 47.86 47.72
46.00 42.44 47.31 41.59 42.70 37.50 38.23 45.12 48.35 50.11 50.28 50.49 50.97 53.08 54.79 54.96 58.33 58.66 59.60 60.05 61.24 61.96 62.18 62.35 62.43 62.39 62.56 62.86 62.86 62.66 63.71 62.00 61.28 61.77 61.58 59.72 57.06 54.00 53.03 52.87 51.95 50.79 49.42 48.64 47.98 47.42 47.07 47.61 47.61
47.18 48.73 41.93 43.10 34.02 32.07 38.78 41.41 42.04 46.33 47.79 49.27 50.16 51.77 54.09 56.29 57.72 58.45 59.72 60.27 61.12 61.82 63.51 64.03 63.71 63.17 63.35 63.51 63.65 63.40 62.00 62.07 61.93 61.85 61.36 58.44 55.12 53.94 53.63 52.80 51.85 49.55 47.91 48.03 47.93 46.89 47.50 47.21 46.50
45.05 43.87 45.32 45.62 42.86 35.93 34.36 39.20 48.44 47.86 49.41 49.88 50.93 52.54 53.72 55.22 57.52 58.12 58.73 59.52 61.26 62.06 61.81 63.53 64.06 63.98 63.88 63.96 63.76 62.86 61.02 59.65 59.51 62.14 60.29 56.58 55.41 54.76 53.45 52.08 49.84 48.37 48.14 47.70 46.46 46.27 46.27 46.29 45.88
47.79 45.99 45.41 39.73 39.24 42.48 41.45 40.50 50.42 50.37 50.66 52.15 52.08 53.08 53.72 55.27 56.80 58.54 59.28 59.70 59.92 60.83 62.57 63.82 64.01 64.43 64.92 64.21 62.47 62.51 62.68 62.74 61.23 59.53 58.26 57.18 55.80 54.62 52.49 51.35 49.73 48.54 47.45 46.79 45.51 45.67 45.98 45.03 43.97

GFSSGP_sfc_wetblb_039.txt.gz
Wetbulb
58.48 56.48 56.13 52.38 40.50 36.47 34.30 38.63 43.78 44.78 50.61 55.29 57.63 53.55 53.60 57.33 56.42 49.34 63.17 63.23 64.45 63.58 65.15 70.79 71.48 71.71 71.72 71.07 70.58 70.51 70.60 70.28 70.31 70.84 70.87 71.11 71.29 71.09 71.23 69.99 69.38 69.44 69.18 67.44 66.49 66.43 66.95 66.98 66.80
56.93 56.48 53.80 45.99 35.47 30.37 35.76 43.09 42.93 46.42 54.75 54.70 55.77 53.95 55.28 53.86 59.35 62.63 62.44 63.08 63.77 62.80 64.02 70.21 71.10 71.38 71.08 70.37 70.21 70.19 70.28 70.28 70.47 70.64 70.81 71.04 71.18 71.11 71.21 69.38 69.11 69.30 68.94 66.89 66.16 65.93 66.50 66.22 66.63
57.92 55.66 44.69 39.26 35.09 34.15 35.08 42.68 45.48 46.75 50.73 52.54 55.51 58.25 57.78 55.29 59.25 59.98 62.57 65.45 64.19 66.30 69.43 70.34 70.43 70.55 70.50 70.02 70.08 69.67 69.63 69.80 70.19 70.47 71.04 71.18 71.26 71.31 70.79 69.28 69.14 69.30 68.61 66.33 65.69 65.77 65.67 65.39 65.42
53.61 49.07 45.68 36.92 35.83 40.50 40.28 44.61 48.88 46.55 51.00 55.26 55.33 51.26 56.72 60.28 60.24 61.59 63.15 63.17 65.22 67.11 69.02 69.30 69.46 69.89 69.93 70.07 69.87 69.58 69.48 69.30 69.56 70.01 71.15 71.53 71.58 71.36 70.57 69.31 69.40 69.27 67.69 65.74 65.31 64.86 64.36 65.03 64.70
51.47 44.55 37.03 35.95 39.13 43.83 47.69 49.20 50.31 51.29 51.96 52.32 56.26 52.59 53.58 62.22 64.17 65.59 61.86 62.62 63.52 65.84 68.46 68.91 68.56 68.79 69.43 69.95 69.67 69.35 69.22 69.11 69.25 69.92 70.60 71.04 70.96 70.90 70.07 68.91 68.82 68.14 67.26 65.79 64.59 64.11 64.71 64.28 64.00
44.20 43.77 35.57 35.68 41.36 47.79 48.28 48.70 49.53 52.09 53.12 51.92 51.54 53.96 56.80 62.28 62.78 64.61 64.83 63.98 62.93 64.99 65.39 65.86 69.04 68.90 68.88 68.80 68.87 68.88 68.98 68.85 68.88 69.07 69.61 70.32 70.35 70.08 69.27 68.63 68.09 67.53 67.23 66.52 65.55 65.08 64.15 63.41 63.36
42.31 39.03 36.37 39.11 41.97 44.89 49.11 51.19 51.17 52.31 51.89 51.92 53.56 49.98 54.52 58.44 62.02 63.93 64.42 61.37 63.69 65.39 66.64 65.54 67.90 68.13 67.09 66.07 67.69 67.74 68.19 68.44 68.54 68.28 68.25 68.35 68.44 68.57 68.26 68.21 67.81 67.30 66.55 65.83 65.04 64.24 63.02 62.44 61.97
45.47 41.04 37.73 39.58 42.35 45.21 49.82 51.33 53.32 53.84 51.43 57.65 54.46 51.57 52.09 58.91 61.58 61.94 63.06 63.52 62.86 64.16 64.76 65.07 65.83 66.34 66.31 66.70 66.82 67.49 67.62 67.43 67.02 67.06 66.57 66.51 67.23 67.70 67.44 67.12 67.00 66.30 65.77 65.12 64.26 63.30 62.11 61.00 60.19
46.05 37.67 36.17 41.54 43.92 43.30 50.12 48.84 51.31 55.74 51.88 54.77 56.46 57.51 58.99 60.71 61.05 60.17 60.08 61.31 61.52 63.13 63.86 64.49 64.13 64.61 64.11 64.87 66.42 67.14 67.11 66.39 65.98 65.50 64.41 62.09 62.14 63.02 64.32 65.80 65.85 65.42 64.27 63.85 63.42 62.38 61.35 60.35 59.16
42.14 36.82 39.87 46.78 45.32 45.13 47.37 51.37 52.66 52.03 52.45 51.51 55.39 58.78 60.34 59.90 59.51 58.19 57.62 58.31 59.97 60.74 61.54 62.12 62.40 62.65 63.02 64.10 63.75 63.89 63.49 62.24 61.68 61.12 61.02 61.12 61.49 61.94 63.82 64.68 64.81 64.12 63.54 63.12 62.80 61.54 60.67 57.83 52.14
44.19 39.78 44.95 47.40 48.58 47.26 48.19 51.19 55.09 49.76 47.69 50.98 52.42 55.47 58.66 58.61 58.21 56.72 56.54 56.90 57.04 58.91 57.87 59.06 59.46 59.37 59.38 60.67 62.34 61.72 61.30 60.81 60.56 61.25 61.85 61.86 62.16 61.75 60.80 60.52 60.71 60.46 60.85 58.06 58.67 57.81 54.21 54.99 52.97
41.25 46.20 47.00 47.27 48.03 47.79 48.61 52.51 52.54 50.75 51.27 53.15 56.66 58.47 58.39 57.50 56.93 56.42 55.50 56.20 54.82 54.98 55.41 56.24 56.49 57.27 57.69 57.23 57.59 59.62 60.59 61.49 61.47 62.16 61.81 60.72 60.77 59.99 59.40 58.47 56.85 55.49 55.38 53.32 53.86 54.53 54.40 53.14 53.26
44.24 45.57 47.84 48.91 48.91 49.48 54.07 53.11 53.80 54.28 56.25 57.48 57.60 58.69 58.01 57.06 56.53 56.47 56.50 56.40 55.67 54.27 55.29 55.59 55.27 55.32 55.57 56.72 57.62 58.44 59.43 59.91 60.44 61.63 61.15 61.87 60.80 59.33 59.13 58.58 56.11 56.17 56.13 53.54 55.32 54.36 54.15 53.15 52.58
48.15 48.27 47.57 48.81 47.84 50.80 51.06 50.99 53.84 55.89 56.70 56.18 57.68 56.73 56.68 56.19 55.29 55.25 54.30 53.57 53.99 55.29 55.29 56.44 55.92 55.93 56.22 56.24 57.16 58.55 59.06 58.88 59.81 60.24 60.50 61.57 60.68 60.12 59.44 59.70 58.04 57.13 57.18 56.88 55.70 54.80 53.50 52.23 50.91
49.80 45.26 46.60 47.23 47.24 49.82 49.85 46.37 48.23 55.46 56.99 55.44 55.50 55.44 55.34 55.09 55.27 54.48 53.97 53.33 53.57 54.51 55.19 55.92 56.06 56.57 56.16 56.50 57.57 59.05 58.54 58.52 57.20 56.21 60.36 60.90 60.85 60.47 60.81 59.31 58.46 58.12 57.45 57.03 55.75 53.97 52.62 51.10 51.11
44.98 44.00 39.03 45.54 49.81 49.80 48.64 43.38 48.15 51.80 55.51 52.65 53.06 53.77 55.06 54.98 55.03 54.61 54.52 53.73 53.52 53.65 53.93 55.23 56.37 56.28 56.50 56.74 58.35 58.56 56.78 55.55 55.13 54.98 59.52 60.05 59.68 60.05 59.76 58.53 58.56 58.23 57.54 55.16 53.34 52.35 51.26 49.86 48.53
41.54 36.60 38.84 42.61 50.01 49.42 46.85 43.86 49.45 53.63 55.57 51.83 52.21 50.98 51.76 54.74 54.10 54.10 54.49 54.09 52.98 53.05 53.50 53.65 55.31 55.76 55.91 56.33 57.78 57.69 55.73 54.59 55.43 56.11 58.63 60.44 61.09 60.62 60.32 59.14 59.10 58.11 56.36 55.28 54.33 52.57 51.52 49.45 47.74
37.36 37.92 38.92 40.40 47.95 48.84 45.41 44.89 48.63 51.45 54.03 52.82 51.24 51.94 53.54 54.15 53.69 54.72 54.04 54.01 53.11 52.80 53.74 54.31 54.96 54.96 54.89 55.40 55.53 55.98 54.22 55.81 57.35 58.41 61.24 61.79 61.86 61.72 60.51 59.95 59.59 57.18 55.76 55.00 53.54 51.97 50.42 48.76 47.88
43.77 41.88 40.55 43.47 49.12 48.29 46.72 45.14 45.71 49.43 51.44 52.43 51.39 52.31 54.32 52.90 55.14 54.68 54.27 54.67 53.12 52.26 52.55 54.04 53.36 53.05 53.87 52.55 52.56 52.59 53.00 55.86 56.79 58.09 62.02 61.92 61.82 62.07 59.78 59.09 57.63 57.35 55.81 54.48 52.68 51.77 48.31 46.70 46.56
44.97 41.76 39.93 44.01 49.21 47.18 45.71 43.95 45.93 48.49 50.76 51.11 51.17 52.02 53.48 53.50 54.10 54.80 54.92 53.61 52.79 51.38 52.07 52.33 52.78 53.16 54.91 54.11 53.80 53.99 56.51 55.13 56.85 57.35 60.93 62.05 62.27 61.51 60.46 58.67 56.63 55.90 55.53 54.33 52.78 49.96 47.47 46.71 45.90
44.26 41.44 40.60 41.92 45.54 47.48 44.64 43.35 46.41 50.42 51.27 53.41 52.09 52.24 53.63 53.49 53.25 54.40 54.70 53.47 52.78 52.44 52.64 52.65 53.36 56.58 55.92 56.39 55.88 57.27 56.95 54.69 55.04 56.65 59.43 61.53 59.82 58.64 60.40 58.88 57.11 56.01 55.58 54.28 51.94 49.66 48.61 45.95 45.99
40.13 45.50 44.79 44.02 41.22 35.98 43.94 32.92 44.92 47.20 49.92 51.70 51.92 51.82 51.66 53.69 54.95 55.08 55.65 53.81 53.31 54.12 55.19 55.99 56.89 58.20 57.83 58.08 57.99 57.77 57.49 55.88 55.71 56.11 59.98 60.03 60.61 59.87 60.53 59.39 58.25 57.22 56.17 54.68 52.47 52.02 50.38 48.58 45.88
42.73 46.66 45.75 44.69 40.18 38.13 40.27 35.88 39.82 47.94 47.07 49.54 50.75 52.63 52.68 54.04 54.61 54.79 55.19 56.22 56.12 55.46 55.86 57.52 58.40 58.71 58.59 58.36 58.84 58.50 57.35 57.05 56.16 57.90 60.06 60.23 60.51 60.77 60.48 58.98 57.92 56.73 55.78 54.68 54.03 51.73 50.23 50.61 49.65
47.26 46.33 45.16 43.46 39.88 31.16 38.26 37.89 36.99 43.87 47.39 50.42 52.04 53.41 53.75 53.02 54.74 55.85 56.75 57.16 57.32 57.41 57.33 57.88 58.35 58.87 59.16 59.32 59.36 59.10 57.95 55.03 54.42 55.07 59.67 59.84 60.66 60.48 60.15 59.50 58.48 56.84 52.08 51.36 51.58 51.69 50.73 50.11 49.91
44.35 40.99 33.07 30.37 29.43 28.45 42.56 39.10 39.57 44.01 47.33 49.27 52.08 52.95 53.86 54.98 54.35 55.27 55.95 56.76 57.00 57.33 57.52 58.04 58.08 57.80 58.68 58.88 59.46 59.42 58.24 56.13 55.85 56.34 57.81 58.62 58.09 57.46 58.63 57.09 54.67 52.44 52.15 52.33 52.14 50.29 48.19 48.36 48.33
42.53 41.60 32.82 27.01 26.17 32.95 41.33 35.62 41.09 48.02 49.05 50.32 54.40 54.49 53.98 53.61 54.89 54.77 55.88 56.84 57.75 58.12 58.56 58.75 58.67 58.73 59.52 59.54 59.66 60.11 59.59 58.45 57.97 57.48 58.09 58.27 59.25 59.37 56.26 53.24 52.89 51.69 52.52 51.13 49.83 48.61 47.78 48.10 48.10
42.33 38.53 43.64 36.84 39.51 33.11 36.50 42.45 46.85 48.21 47.52 48.17 48.44 50.54 49.63 50.78 52.94 54.78 56.14 56.64 57.36 58.64 58.78 59.22 59.74 59.67 60.00 59.82 59.98 60.03 60.10 59.56 58.85 59.24 59.84 60.11 60.01 56.06 54.27 53.09 51.30 50.14 48.88 48.55 47.24 47.03 47.72 47.67 47.58
43.96 45.90 37.84 37.94 29.42 27.22 34.97 37.36 39.26 44.75 45.72 47.08 45.93 48.02 49.94 51.63 53.50 54.86 55.62 56.91 57.55 58.22 59.24 59.46 59.90 60.21 60.44 60.44 60.14 60.59 60.55 60.18 59.93 59.35 57.18 57.67 55.48 55.35 53.50 53.54 52.55 51.39 48.61 47.10 47.82 47.38 47.63 47.24 47.08
41.72 40.39 42.01 41.99 38.50 30.35 27.03 33.21 44.10 45.67 46.42 45.65 45.24 47.35 48.57 50.18 51.34 52.75 54.03 54.90 57.80 59.34 58.94 58.95 59.44 59.66 60.66 60.10 60.45 60.16 60.32 60.75 60.83 59.98 59.08 57.56 54.63 54.30 53.48 54.01 52.00 48.32 47.29 47.93 47.20 46.71 47.44 46.12 46.01
44.29 42.51 41.92 34.35 34.67 37.79 34.18 35.17 46.79 46.63 46.94 48.13 47.97 48.05 48.08 51.21 52.51 52.89 53.14 53.69 54.29 56.06 59.20 59.17 59.97 60.29 57.92 58.32 60.47 60.23 59.57 59.63 58.03 58.14 56.96 55.40 53.45 54.22 54.20 52.83 50.72 48.97 48.12 47.27 46.41 45.82 46.02 45.22 44.87

GFSSGP_sfc_wetblb_042.txt.gz
Wetbulb
56.60 54.71 54.67 51.04 39.29 34.68 31.41 36.47 40.60 41.90 46.00 53.38 55.25 53.63 54.72 56.17 54.30 48.28 62.58 63.38 64.55 66.31 70.20 70.04 69.84 71.17 70.91 70.59 70.40 70.04 70.12 70.88 71.33 71.24 70.97 71.46 70.61 70.35 69.93 69.42 68.80 68.62 68.58 68.36 68.34 68.02 68.03 67.68 67.45
55.29 54.45 51.14 44.29 33.96 28.48 31.86 38.82 39.68 43.19 52.03 54.04 56.42 55.93 55.00 52.93 58.71 60.13 61.82 63.26 62.47 65.46 68.56 68.63 69.20 70.36 70.60 70.14 70.06 69.63 70.39 70.95 71.09 71.07 71.07 71.42 70.42 69.95 69.51 68.95 68.32 68.20 68.08 67.63 67.66 67.47 66.31 65.35 66.12
55.13 53.83 43.93 38.13 31.49 29.65 32.53 39.49 45.07 49.83 53.90 54.71 55.10 56.80 56.25 54.18 59.06 60.15 62.72 65.89 64.24 62.40 64.78 68.42 69.28 69.18 70.09 69.98 69.47 69.31 69.91 70.17 70.39 70.62 71.29 71.48 70.25 69.90 69.49 68.52 68.19 68.02 67.71 66.95 67.15 66.05 64.59 64.87 65.52
51.90 47.11 43.80 35.87 33.35 37.21 39.42 42.50 48.00 50.79 52.82 53.72 53.19 51.17 56.14 62.42 61.00 63.56 62.12 65.91 65.33 65.72 67.30 68.85 68.63 69.46 69.69 69.22 69.34 69.43 69.54 69.44 69.76 70.25 71.01 71.16 70.22 69.93 69.37 68.27 68.19 67.77 66.96 66.16 65.28 64.44 64.22 64.65 66.08
49.48 42.20 35.14 32.88 36.29 40.72 45.09 48.53 51.17 50.29 51.38 51.76 54.23 51.59 54.39 61.19 63.11 64.64 61.51 63.63 64.43 65.65 66.93 68.22 67.85 68.34 69.01 68.49 69.38 69.60 69.32 69.36 69.71 70.06 70.29 70.34 69.97 69.70 68.95 67.98 67.40 67.07 66.31 64.73 63.83 64.05 64.68 64.37 65.93
44.01 41.19 33.52 31.22 36.96 42.66 48.18 48.65 51.46 51.62 52.17 51.84 51.22 52.69 55.53 61.67 61.52 63.61 63.46 62.00 62.98 64.24 66.48 67.85 68.86 68.57 68.09 67.91 69.01 68.78 68.86 69.64 69.76 69.89 69.93 70.28 69.53 68.87 68.54 67.62 67.26 67.08 66.11 65.19 64.60 64.20 63.97 63.42 63.97
40.87 37.81 33.42 35.35 37.96 41.79 47.25 50.21 51.97 52.25 52.66 51.48 53.60 50.46 53.05 58.34 61.26 63.52 61.78 62.57 63.74 65.21 65.25 64.78 64.77 65.42 66.93 65.72 67.61 67.77 68.25 68.77 69.17 69.37 69.45 69.48 68.32 68.00 67.98 67.61 67.11 66.21 65.28 64.49 63.94 63.35 63.04 63.26 62.75
42.98 40.26 33.83 36.57 38.02 40.80 48.08 49.88 53.10 52.03 50.94 56.69 54.66 50.45 51.16 58.73 61.35 62.71 62.45 62.60 63.89 63.50 63.61 63.87 65.03 64.58 62.22 63.29 67.09 67.51 67.56 67.31 67.55 68.09 67.82 67.23 67.33 67.66 67.25 66.56 66.16 65.55 64.69 64.09 63.44 62.52 62.87 62.37 62.13
43.79 36.11 33.20 36.68 39.62 42.16 49.42 48.16 51.11 54.10 51.93 55.15 56.33 57.48 58.63 60.63 60.99 60.97 60.87 61.03 62.39 63.14 63.33 62.94 63.01 63.56 63.36 63.84 67.15 67.22 67.32 66.59 66.43 66.73 66.26 65.17 64.97 64.67 63.62 65.01 65.33 64.71 63.45 63.07 62.72 62.16 60.98 59.08 60.57
40.88 34.17 37.66 42.57 44.00 43.29 47.56 50.97 51.55 51.36 50.96 53.38 54.87 58.48 59.65 60.65 59.41 58.78 58.84 58.62 59.54 61.01 62.10 62.23 61.30 62.06 62.74 64.41 64.86 64.75 64.57 62.95 62.24 61.41 61.06 61.75 61.74 62.88 63.29 63.83 63.91 63.37 63.09 62.70 61.98 61.01 59.55 56.93 51.42
39.88 38.61 43.97 45.17 47.34 46.32 50.72 51.28 52.22 47.90 46.05 50.52 52.35 56.54 58.88 58.48 57.99 57.80 57.44 59.14 59.60 59.42 60.89 60.69 60.56 61.34 61.13 62.25 62.88 61.77 60.93 60.11 59.67 59.85 61.11 61.15 62.27 62.27 61.30 60.98 60.17 59.90 60.73 57.97 57.25 54.50 53.72 53.33 51.37
39.68 45.35 45.17 45.05 47.89 46.99 49.21 52.28 51.49 50.69 50.33 53.31 55.30 58.55 57.92 57.05 56.95 56.38 55.96 55.28 55.84 57.80 58.54 60.01 60.03 59.99 60.28 60.78 61.23 60.79 59.69 60.36 60.58 59.90 60.69 60.17 59.49 58.27 57.89 58.71 57.73 55.65 54.24 53.79 53.44 53.71 53.47 52.41 51.53
43.29 44.63 46.15 47.53 47.86 50.89 54.56 52.55 53.67 53.63 54.95 56.45 57.41 58.49 57.46 56.73 56.49 56.71 56.26 55.24 55.30 54.86 55.96 57.24 58.48 58.59 58.57 59.59 58.93 59.97 60.43 60.93 61.20 60.62 60.62 59.50 57.99 56.89 56.49 56.34 55.36 53.59 52.96 52.32 54.07 53.15 52.80 52.00 51.03
47.07 46.85 45.83 47.12 46.33 52.86 52.55 53.15 52.53 54.75 55.63 54.85 56.71 56.56 56.49 56.05 55.70 55.12 55.36 54.70 54.42 55.02 55.14 55.60 56.21 57.29 58.23 58.12 58.72 58.91 58.84 59.69 60.82 60.65 60.57 59.51 58.31 57.00 56.59 56.61 54.11 53.48 53.78 52.58 54.59 52.93 52.03 50.46 48.89
47.62 43.35 44.74 45.48 45.35 48.63 49.71 44.72 48.24 55.32 55.69 54.47 54.53 55.18 54.36 55.08 55.24 54.71 54.79 53.74 54.89 55.36 55.76 55.19 55.60 56.91 57.26 57.49 58.22 58.31 58.62 58.57 58.04 58.46 59.36 59.53 59.10 58.34 58.31 58.01 55.69 55.01 55.15 55.32 54.32 53.25 51.96 50.03 49.63
43.22 42.06 37.22 43.13 47.52 48.19 45.44 40.49 47.95 55.30 54.93 52.44 52.71 54.24 53.93 53.54 54.08 55.11 54.70 54.22 54.81 55.32 55.20 55.91 56.80 56.26 56.42 56.74 57.36 57.54 57.26 56.74 56.18 55.35 58.75 59.51 59.59 59.77 58.80 59.18 57.81 56.94 55.89 55.55 54.13 52.43 50.43 49.65 47.96
38.84 34.52 37.20 40.49 46.49 47.91 44.80 42.13 46.97 53.03 54.84 52.38 51.82 52.37 52.86 52.64 52.93 53.85 54.61 54.31 54.32 54.68 54.67 54.83 55.63 55.58 55.64 56.27 56.78 57.40 56.03 54.13 53.99 54.42 56.37 58.47 59.03 59.31 58.47 57.87 57.68 56.92 55.51 53.42 53.39 51.11 50.46 47.81 46.51
34.91 35.45 34.74 37.03 44.89 46.44 44.15 43.09 46.98 50.42 53.19 51.01 50.10 48.16 52.45 52.62 52.44 53.40 53.74 53.40 53.75 53.87 54.48 54.70 55.08 55.40 55.58 56.20 56.61 56.29 54.35 53.01 54.05 52.82 54.91 57.43 58.72 59.59 59.14 57.81 57.92 56.43 54.44 52.94 52.01 50.98 50.20 48.76 47.54
40.73 39.25 37.78 41.24 46.64 46.51 44.65 43.24 44.93 49.47 51.86 50.14 48.84 48.91 49.85 52.58 53.48 53.46 53.14 52.61 52.97 52.60 52.49 53.62 53.97 54.50 54.40 54.59 54.85 54.01 52.54 51.25 52.82 53.54 56.07 58.74 58.77 60.24 58.72 57.83 57.60 55.80 55.13 54.45 52.90 50.61 48.35 46.40 46.22
41.39 39.29 39.33 41.80 46.37 45.32 43.36 43.39 43.70 48.00 49.75 51.78 49.73 49.96 51.27 52.68 52.63 52.71 52.38 51.61 51.32 51.51 52.47 53.01 53.68 53.58 53.81 54.66 54.50 53.46 53.25 52.01 53.58 54.38 56.59 59.74 60.40 60.42 59.54 58.10 57.36 55.79 54.44 53.50 51.82 49.86 46.51 45.69 45.04
41.27 39.62 39.81 39.49 43.39 42.65 43.91 41.13 43.63 47.54 50.27 51.22 53.31 52.00 53.34 52.68 52.14 52.07 51.97 51.66 50.88 50.77 51.52 52.88 53.25 52.82 53.64 53.87 52.56 51.02 51.94 53.57 53.62 54.85 55.93 58.37 60.33 60.42 60.33 58.35 57.31 55.71 55.18 53.87 51.68 49.49 47.89 45.62 44.74
38.81 44.91 43.10 41.41 39.03 34.12 40.50 31.44 42.29 45.12 46.66 49.05 50.86 51.05 52.67 52.52 53.41 52.85 52.20 51.48 50.87 50.66 51.86 52.79 53.39 52.60 53.25 53.68 52.11 51.40 52.05 51.55 54.40 55.92 56.42 57.92 59.92 59.99 59.50 58.97 57.30 55.57 55.11 53.65 52.85 49.94 47.70 47.84 46.41
42.08 46.03 43.10 42.95 38.72 36.09 37.53 33.37 36.88 45.29 44.77 46.75 49.14 50.20 51.80 52.53 52.86 52.75 52.92 52.27 52.20 51.34 50.89 51.44 52.57 52.70 53.64 54.02 53.22 52.11 51.83 53.84 55.96 53.35 54.87 57.20 58.51 59.46 58.37 58.39 57.62 55.99 55.16 54.83 53.29 49.53 48.43 49.84 49.41
46.86 43.80 42.98 41.36 37.85 30.37 36.58 34.82 34.10 40.85 45.42 47.66 50.35 50.82 51.63 52.95 53.21 53.80 54.59 53.96 52.39 52.44 51.44 51.80 51.54 52.20 55.59 54.63 54.52 54.22 53.90 55.35 56.18 53.76 54.36 56.56 58.14 58.97 58.64 58.50 58.57 57.12 56.63 55.22 53.58 51.66 49.29 49.28 48.55
43.13 38.44 31.62 29.97 29.32 28.59 39.31 36.96 37.77 42.67 46.92 49.63 50.67 50.88 51.79 53.32 53.46 53.73 54.06 53.66 52.73 52.13 52.50 52.88 53.24 53.66 55.65 56.45 55.79 55.60 56.26 56.76 56.32 55.16 55.27 55.98 56.87 56.40 57.99 59.14 58.21 57.05 55.07 54.43 53.52 51.27 50.52 48.86 48.35
40.70 38.98 31.04 26.22 25.94 30.89 39.18 33.56 38.50 46.71 47.77 50.32 52.82 53.02 53.29 52.16 53.82 53.82 54.38 55.01 54.69 53.32 53.54 54.03 54.62 55.09 55.97 56.60 56.42 56.67 57.42 57.92 57.84 57.13 55.31 58.01 58.52 59.01 59.30 59.38 58.34 57.17 53.11 52.34 52.79 50.62 50.45 48.74 48.79
40.94 36.06 41.69 34.72 35.33 31.07 34.18 39.17 43.56 46.61 46.51 46.72 48.02 52.26 52.77 53.05 52.65 53.95 54.93 55.21 55.67 55.82 54.94 54.79 55.53 56.60 57.10 57.22 57.22 57.23 57.79 58.08 58.05 57.04 56.57 57.50 59.41 59.42 58.57 57.35 55.78 54.12 53.17 52.48 51.26 50.28 48.64 48.83 48.54
43.23 44.21 35.19 34.35 27.57 26.37 32.99 34.45 35.75 42.49 45.23 45.35 44.50 49.49 50.85 51.54 53.47 53.54 54.85 55.65 56.56 56.81 57.19 56.93 57.00 56.74 57.49 58.04 58.37 58.46 58.31 58.69 59.08 57.66 57.40 57.70 55.35 55.90 55.62 54.39 53.52 51.71 51.35 50.04 50.30 49.42 48.21 48.06 48.31
39.71 38.04 39.38 38.57 35.10 28.40 27.42 31.50 41.80 43.70 45.60 46.25 46.94 47.42 50.19 49.82 50.62 53.16 53.90 55.85 56.78 57.76 57.61 57.34 57.55 57.60 57.69 58.43 58.73 58.57 58.67 59.04 58.53 57.93 57.66 56.88 56.84 56.26 54.57 53.21 51.69 50.81 50.54 49.32 48.53 47.83 47.76 47.51 46.96
42.53 41.39 40.77 33.36 33.01 33.92 30.43 34.44 45.01 44.83 45.64 46.55 46.35 47.29 47.66 48.98 49.51 52.27 53.12 54.52 55.68 56.18 57.08 57.97 58.11 58.45 58.92 59.26 59.42 58.60 58.25 57.69 58.28 58.42 57.64 57.32 57.38 57.00 55.72 53.45 53.27 51.05 49.29 48.85 47.42 46.77 47.35 46.43 45.37

GFSSGP_sfc_wetblb_045.txt.gz
Wetbulb
56.26 56.33 52.96 48.69 37.98 34.57 31.11 34.96 39.04 40.59 41.19 52.45 55.41 55.52 53.57 53.66 54.00 47.38 62.39 63.72 66.99 68.74 69.81 69.56 70.01 70.45 69.95 70.02 70.50 70.89 71.26 71.42 71.71 71.36 70.95 70.90 70.48 70.15 69.44 68.88 69.17 69.73 69.84 68.76 68.55 68.36 68.14 67.66 68.00
53.47 53.19 48.78 41.26 33.07 27.81 31.38 37.02 40.44 47.30 50.75 53.43 56.27 55.32 53.29 52.36 58.49 60.25 61.40 62.48 63.79 68.85 67.97 68.56 69.78 69.65 69.27 68.92 69.25 70.54 71.34 71.34 71.61 71.17 70.83 70.48 70.22 69.68 68.95 68.24 68.78 69.46 69.50 68.30 68.05 67.76 67.78 67.35 67.19
53.08 50.78 43.12 37.01 29.78 29.28 31.51 38.01 43.72 49.33 52.69 53.66 53.50 55.10 55.47 53.71 58.27 59.26 61.36 63.71 63.95 64.62 67.87 67.13 69.20 68.53 68.11 67.59 68.38 70.24 70.39 70.47 71.08 70.50 70.59 70.12 69.75 69.44 68.54 67.71 68.31 69.24 68.61 67.34 66.16 64.94 64.87 66.85 67.45
50.50 46.35 42.08 35.29 31.71 36.49 38.17 41.12 46.73 49.73 51.62 51.96 51.93 49.54 56.23 61.28 59.10 62.71 62.19 65.25 65.43 62.93 64.49 67.35 68.44 68.20 67.99 67.42 67.14 69.88 70.12 69.88 70.24 69.81 69.90 69.90 69.51 69.15 68.25 67.37 68.07 68.97 67.57 65.57 64.67 65.57 66.30 66.34 65.75
47.06 41.18 34.23 31.16 33.88 38.71 41.09 45.17 50.05 49.38 50.10 50.98 52.71 50.54 53.49 61.35 62.76 64.18 61.97 64.65 63.51 63.85 63.44 66.11 67.54 67.63 67.67 66.90 67.38 69.69 69.44 69.49 69.81 69.42 69.33 69.26 69.02 68.61 67.69 67.08 67.54 67.32 66.34 64.61 65.50 67.35 66.62 65.68 65.04
42.14 39.63 33.08 30.87 35.28 40.82 43.07 46.76 51.00 50.95 51.35 51.13 50.48 52.31 55.22 60.83 61.00 63.44 62.55 61.42 64.54 63.93 65.36 66.02 67.45 67.57 66.75 65.70 65.88 68.63 68.99 69.03 69.14 69.08 69.02 69.07 68.40 67.91 67.46 67.07 66.44 65.85 65.11 64.61 64.98 65.89 65.59 65.14 64.33
39.73 36.68 32.48 32.69 36.48 38.68 44.89 48.55 49.99 50.96 51.37 50.59 53.24 50.11 53.75 57.98 61.19 62.76 61.52 62.51 64.32 64.46 66.42 65.89 66.02 66.40 65.49 63.13 63.33 66.07 68.62 68.50 68.38 68.68 68.50 68.29 67.46 67.00 67.01 66.20 65.46 64.75 64.18 63.73 63.63 63.63 64.72 64.53 63.96
41.61 38.67 33.30 34.88 35.78 37.11 46.39 48.47 51.77 50.74 48.72 56.69 54.23 49.25 49.52 58.05 61.41 62.52 62.60 63.68 64.09 63.67 63.66 64.20 63.99 64.80 64.19 64.11 64.40 65.88 67.68 68.27 68.21 68.58 67.84 67.30 66.79 66.64 66.03 65.12 64.81 64.49 63.84 63.79 63.08 63.28 64.11 64.56 63.26
41.43 35.41 31.61 35.10 36.68 40.33 47.74 47.01 50.54 52.87 51.60 54.68 56.29 56.83 58.24 60.41 61.47 61.11 60.74 61.85 62.24 62.60 62.00 62.78 63.82 63.70 60.02 60.74 62.09 65.58 68.07 68.17 67.84 67.51 66.92 65.21 64.41 63.37 61.71 63.88 64.04 63.62 62.61 62.35 62.24 61.40 63.29 63.29 62.61
39.66 33.61 36.31 40.63 41.03 40.95 46.46 49.36 50.90 50.51 50.19 52.56 53.27 57.62 59.81 60.13 59.73 59.74 58.54 59.22 60.55 60.12 59.96 61.27 61.15 60.99 60.01 59.95 61.58 63.38 66.05 65.90 65.69 65.57 63.59 62.48 61.60 61.14 61.55 62.38 63.05 63.16 62.40 61.97 61.81 60.51 59.36 57.17 55.72
39.00 37.65 40.82 44.14 44.44 45.96 48.65 49.19 51.13 47.01 45.20 49.82 51.07 54.51 58.08 58.16 57.93 57.63 57.90 59.02 58.98 60.46 59.53 60.17 60.67 60.41 60.23 60.89 61.27 61.80 61.36 61.67 62.43 62.56 62.04 61.07 61.51 61.11 60.44 58.98 58.33 57.86 58.95 54.79 53.61 53.61 52.41 50.39 50.95
38.14 42.92 42.81 43.86 44.65 49.41 48.89 50.17 50.39 49.49 48.66 51.35 53.57 56.29 56.11 56.47 56.87 56.53 55.97 56.77 58.08 59.60 59.13 59.42 61.16 60.85 59.86 59.81 60.11 61.28 60.86 60.38 60.92 60.84 60.70 60.22 59.82 57.93 57.48 56.97 56.56 55.72 53.99 52.19 51.86 51.89 50.90 49.77 49.96
41.27 43.68 46.02 45.70 46.58 48.44 53.09 51.15 51.74 50.39 52.84 54.77 55.81 57.44 55.68 55.87 56.59 56.37 55.46 55.67 56.67 57.40 58.77 59.19 59.03 58.50 60.49 60.26 60.06 59.59 59.70 59.79 60.30 60.18 59.81 59.00 58.06 56.84 55.65 55.19 54.06 53.09 51.35 51.23 52.12 50.90 50.73 49.31 49.27
45.35 45.26 44.98 45.24 49.62 52.62 51.03 50.98 51.10 53.59 54.55 53.51 55.76 55.39 56.57 56.39 55.40 55.54 54.98 54.57 55.07 56.77 57.88 58.96 59.03 58.59 59.18 59.38 59.08 59.46 60.12 59.69 60.00 58.20 57.66 57.26 57.25 56.31 55.26 54.12 52.89 51.72 50.74 52.44 52.07 50.85 49.45 48.32 48.50
45.82 41.92 43.26 43.50 44.89 49.31 50.21 45.07 48.58 53.81 54.14 53.48 54.29 55.80 55.54 55.27 55.79 54.98 55.44 54.67 55.20 55.65 56.59 57.55 57.89 58.78 58.92 58.20 58.49 58.57 59.53 60.02 59.79 59.28 58.02 56.84 56.73 55.99 55.77 54.43 52.56 52.64 51.52 52.74 51.72 50.53 48.86 47.22 47.82
41.33 40.16 36.17 41.02 46.22 46.39 43.61 39.88 46.18 54.07 53.54 51.99 52.38 53.46 53.40 53.30 54.18 55.36 55.15 55.18 55.34 55.54 55.40 56.42 58.44 58.24 57.52 57.16 58.34 57.78 58.02 58.32 57.72 59.17 59.00 57.83 57.53 57.41 56.14 55.30 53.81 53.64 53.28 53.73 52.55 51.10 48.87 47.74 46.28
37.09 32.67 35.66 39.80 44.08 45.22 43.50 41.30 45.19 53.83 54.10 51.38 51.43 51.53 51.92 51.67 52.74 54.02 54.87 54.73 55.36 55.46 55.54 55.79 56.84 56.93 57.05 57.03 57.76 56.90 56.09 55.16 55.74 57.04 58.54 58.70 58.25 58.54 57.03 57.10 55.91 55.46 54.53 54.05 53.52 50.56 49.45 47.44 45.31
32.69 33.81 32.99 35.12 40.42 44.56 41.71 42.85 44.92 52.66 53.17 51.43 49.65 50.16 51.38 51.35 52.41 53.05 54.42 54.60 54.96 55.02 55.47 55.63 55.93 56.19 56.64 56.75 56.66 56.45 55.51 53.81 53.76 54.19 56.93 57.90 57.83 58.51 57.75 56.82 56.89 56.33 55.07 53.26 52.29 50.07 48.80 47.40 45.99
38.77 36.50 35.02 38.02 42.04 42.79 42.99 42.36 43.55 47.80 50.64 48.92 48.99 48.02 50.42 51.62 52.47 52.61 53.69 53.73 53.79 54.10 54.52 54.77 55.09 55.57 56.05 55.51 55.19 54.58 53.47 53.15 53.23 53.79 55.77 55.58 56.92 58.39 57.14 56.27 56.23 55.33 54.44 53.69 52.51 49.52 48.40 46.26 45.76
38.61 36.54 36.25 39.82 42.91 42.32 41.19 41.34 43.40 46.71 50.38 50.86 48.80 48.48 47.97 51.16 51.34 51.90 51.96 51.86 51.94 52.48 53.07 54.13 54.54 55.02 55.17 55.77 55.51 55.25 52.44 52.91 52.83 53.77 53.59 56.24 57.56 57.46 57.88 56.93 56.39 55.20 53.64 52.20 51.01 49.67 46.61 46.00 45.15
38.56 36.65 37.25 37.89 40.63 41.60 41.09 38.85 41.73 45.23 48.40 51.11 51.78 50.52 49.75 50.46 51.19 51.52 51.52 50.88 49.99 50.64 51.39 52.66 54.07 54.50 55.04 55.16 52.83 51.59 52.75 52.45 51.53 51.28 52.21 54.01 57.20 58.33 58.22 57.36 56.86 55.42 53.96 52.60 51.50 49.12 47.70 44.91 43.87
35.39 41.63 41.55 40.26 36.63 33.24 40.47 30.87 36.93 43.11 44.54 48.30 50.31 50.87 49.98 51.34 52.70 52.05 51.38 50.77 49.56 50.22 51.54 52.46 53.20 53.73 53.98 53.04 51.74 51.01 51.47 50.59 51.48 51.04 51.85 53.40 56.31 58.15 59.16 58.53 57.12 55.79 54.63 52.92 52.49 50.67 47.73 47.35 44.19
39.02 43.30 41.49 40.96 36.61 35.10 35.58 32.03 35.82 42.96 42.19 45.46 48.21 49.88 50.95 51.89 52.83 52.01 51.39 51.81 50.75 50.96 50.78 51.97 52.80 52.89 53.08 52.70 52.10 50.90 50.10 51.31 51.66 52.18 52.80 53.53 55.04 57.51 58.31 58.17 57.31 56.19 55.16 54.14 53.70 51.51 51.22 48.94 48.30
44.81 41.89 40.28 38.55 36.19 29.81 35.56 33.52 32.34 38.50 43.18 45.05 48.09 49.51 50.56 51.96 52.89 53.73 53.10 52.47 51.48 50.75 50.82 51.25 51.95 52.45 52.77 52.78 52.35 51.03 50.65 49.99 51.20 52.73 53.02 53.95 54.04 56.07 56.91 56.98 57.42 56.49 55.26 54.35 54.69 54.31 51.50 50.16 49.69
41.10 36.10 29.12 27.76 27.22 28.29 36.85 34.21 35.98 40.81 44.43 46.84 47.44 49.35 50.21 52.34 52.17 52.87 52.27 51.76 51.19 50.24 50.15 50.54 51.03 51.45 52.44 52.56 52.71 52.39 51.27 50.70 51.59 53.16 53.79 53.79 53.75 54.25 56.39 56.53 55.91 56.27 56.57 55.87 55.06 53.44 52.13 50.75 49.63
38.56 37.41 29.19 25.11 24.87 28.94 37.09 32.32 37.40 44.17 45.95 46.97 49.12 50.33 50.30 51.01 52.36 52.53 53.08 52.90 52.25 51.26 49.94 50.43 50.70 51.04 52.01 52.61 52.62 53.18 53.22 52.73 52.97 53.73 54.89 54.67 54.72 55.52 55.85 56.95 57.81 58.20 57.05 54.73 54.31 53.85 53.06 51.50 50.29
38.49 34.54 39.61 32.75 32.45 29.09 32.33 36.38 41.66 44.50 44.69 45.26 46.60 49.07 48.64 50.01 52.14 52.62 53.53 53.79 53.37 52.20 51.31 50.18 50.74 50.85 51.65 51.82 53.98 53.57 53.82 53.53 53.87 54.64 55.57 55.51 55.79 57.38 56.49 56.91 57.76 58.31 57.11 55.97 54.29 53.73 51.66 50.51 49.89
41.22 41.69 33.43 32.27 26.49 25.81 30.45 32.50 33.99 39.36 42.72 44.24 44.11 45.46 48.39 50.96 51.58 53.24 53.75 54.19 54.80 54.13 52.85 52.63 51.71 51.64 52.15 52.59 53.17 55.00 54.90 55.08 55.34 55.95 55.79 55.12 55.53 55.93 55.77 55.27 55.69 55.31 54.52 54.41 53.83 52.30 51.05 49.88 49.13
37.68 35.75 37.11 36.83 32.48 28.54 26.96 30.00 39.94 41.87 43.10 43.94 44.21 46.02 48.28 49.27 51.31 52.18 53.87 54.67 55.41 55.59 54.37 52.97 52.97 52.71 53.00 54.21 54.83 55.49 55.77 55.99 56.68 57.02 57.58 56.11 55.45 55.85 56.37 56.07 54.94 53.48 53.60 50.91 50.75 49.34 48.38 48.76 48.01
39.55 38.08 38.11 32.64 30.80 31.98 29.08 33.90 43.14 43.30 44.01 44.46 45.01 46.44 45.10 48.65 50.01 52.63 52.84 54.28 54.69 54.97 55.67 54.96 54.16 53.88 54.83 56.00 56.25 56.69 57.27 57.66 57.56 57.77 57.69 57.27 57.05 57.38 56.25 55.17 53.70 52.08 50.90 50.23 50.05 48.22 48.17 47.89 47.24